<?xml version="1.0" encoding="UTF-8" standalone="no" ?>
<gpx xmlns="http://www.topografix.com/GPX/1/1" xmlns:xsi="http://www.w3.org/2001/XMLSchema-instance" xsi:schemaLocation="http://www.topografix.com/GPX/1/1 http://www.topografix.com/GPX/1/1/gpx.xsd" version="1.1" creator="VisuGPX - https://www.visugpx.com">
  <metadata>
    <name>Cyclo 54kms</name>
  </metadata>
  <trk>
    <name><![CDATA[Rando 2023-9234506]]></name>
    <trkseg>
      <trkpt lat="47.04345" lon="-0.88578">
        <ele>103</ele>
        <time>2023-05-08T19:42:54Z</time>
      </trkpt>
      <trkpt lat="47.04342" lon="-0.88558">
        <ele>103</ele>
        <time>2023-05-08T19:42:56Z</time>
      </trkpt>
      <trkpt lat="47.04342" lon="-0.88541">
        <ele>104</ele>
        <time>2023-05-08T19:42:59Z</time>
      </trkpt>
      <trkpt lat="47.04159" lon="-0.88508">
        <ele>107</ele>
        <time>2023-05-08T19:43:31Z</time>
      </trkpt>
      <trkpt lat="47.04095" lon="-0.88502">
        <ele>110</ele>
        <time>2023-05-08T19:43:43Z</time>
      </trkpt>
      <trkpt lat="47.04054" lon="-0.88502">
        <ele>111</ele>
        <time>2023-05-08T19:43:50Z</time>
      </trkpt>
      <trkpt lat="47.03992" lon="-0.88511">
        <ele>112</ele>
        <time>2023-05-08T19:44:01Z</time>
      </trkpt>
      <trkpt lat="47.03951" lon="-0.88521">
        <ele>113</ele>
        <time>2023-05-08T19:44:09Z</time>
      </trkpt>
      <trkpt lat="47.03949" lon="-0.88534">
        <ele>113</ele>
        <time>2023-05-08T19:44:10Z</time>
      </trkpt>
      <trkpt lat="47.03943" lon="-0.88545">
        <ele>113</ele>
        <time>2023-05-08T19:44:12Z</time>
      </trkpt>
      <trkpt lat="47.03934" lon="-0.88551">
        <ele>113</ele>
        <time>2023-05-08T19:44:14Z</time>
      </trkpt>
      <trkpt lat="47.03925" lon="-0.88551">
        <ele>113</ele>
        <time>2023-05-08T19:44:15Z</time>
      </trkpt>
      <trkpt lat="47.03917" lon="-0.88545">
        <ele>113</ele>
        <time>2023-05-08T19:44:17Z</time>
      </trkpt>
      <trkpt lat="47.03911" lon="-0.88534">
        <ele>113</ele>
        <time>2023-05-08T19:44:19Z</time>
      </trkpt>
      <trkpt lat="47.03909" lon="-0.88521">
        <ele>113</ele>
        <time>2023-05-08T19:44:20Z</time>
      </trkpt>
      <trkpt lat="47.03888" lon="-0.88521">
        <ele>114</ele>
        <time>2023-05-08T19:44:24Z</time>
      </trkpt>
      <trkpt lat="47.0341" lon="-0.88457">
        <ele>118</ele>
        <time>2023-05-08T19:45:49Z</time>
      </trkpt>
      <trkpt lat="47.03324" lon="-0.88445">
        <ele>120</ele>
        <time>2023-05-08T19:46:05Z</time>
      </trkpt>
      <trkpt lat="47.03282" lon="-0.88434">
        <ele>121</ele>
        <time>2023-05-08T19:46:12Z</time>
      </trkpt>
      <trkpt lat="47.03189" lon="-0.88404">
        <ele>124</ele>
        <time>2023-05-08T19:46:29Z</time>
      </trkpt>
      <trkpt lat="47.03158" lon="-0.88389">
        <ele>124</ele>
        <time>2023-05-08T19:46:35Z</time>
      </trkpt>
      <trkpt lat="47.03134" lon="-0.88372">
        <ele>125</ele>
        <time>2023-05-08T19:46:40Z</time>
      </trkpt>
      <trkpt lat="47.03049" lon="-0.88296">
        <ele>126</ele>
        <time>2023-05-08T19:46:57Z</time>
      </trkpt>
      <trkpt lat="47.02946" lon="-0.882">
        <ele>127</ele>
        <time>2023-05-08T19:47:19Z</time>
      </trkpt>
      <trkpt lat="47.02929" lon="-0.88188">
        <ele>127</ele>
        <time>2023-05-08T19:47:23Z</time>
      </trkpt>
      <trkpt lat="47.02866" lon="-0.88149">
        <ele>128</ele>
        <time>2023-05-08T19:47:35Z</time>
      </trkpt>
      <trkpt lat="47.02808" lon="-0.88116">
        <ele>128</ele>
        <time>2023-05-08T19:47:46Z</time>
      </trkpt>
      <trkpt lat="47.02778" lon="-0.88105">
        <ele>128</ele>
        <time>2023-05-08T19:47:51Z</time>
      </trkpt>
      <trkpt lat="47.02718" lon="-0.88089">
        <ele>127</ele>
        <time>2023-05-08T19:48:02Z</time>
      </trkpt>
      <trkpt lat="47.0244" lon="-0.88104">
        <ele>126</ele>
        <time>2023-05-08T19:48:52Z</time>
      </trkpt>
      <trkpt lat="47.02399" lon="-0.8811">
        <ele>126</ele>
        <time>2023-05-08T19:48:59Z</time>
      </trkpt>
      <trkpt lat="47.02358" lon="-0.88121">
        <ele>126</ele>
        <time>2023-05-08T19:49:06Z</time>
      </trkpt>
      <trkpt lat="47.02284" lon="-0.88152">
        <ele>126</ele>
        <time>2023-05-08T19:49:20Z</time>
      </trkpt>
      <trkpt lat="47.02252" lon="-0.88171">
        <ele>126</ele>
        <time>2023-05-08T19:49:26Z</time>
      </trkpt>
      <trkpt lat="47.02222" lon="-0.88193">
        <ele>126</ele>
        <time>2023-05-08T19:49:32Z</time>
      </trkpt>
      <trkpt lat="47.02128" lon="-0.88275">
        <ele>128</ele>
        <time>2023-05-08T19:49:52Z</time>
      </trkpt>
      <trkpt lat="47.02118" lon="-0.88282">
        <ele>128</ele>
        <time>2023-05-08T19:49:54Z</time>
      </trkpt>
      <trkpt lat="47.0209" lon="-0.883">
        <ele>128</ele>
        <time>2023-05-08T19:49:59Z</time>
      </trkpt>
      <trkpt lat="47.02058" lon="-0.88315">
        <ele>129</ele>
        <time>2023-05-08T19:50:05Z</time>
      </trkpt>
      <trkpt lat="47.02036" lon="-0.88321">
        <ele>130</ele>
        <time>2023-05-08T19:50:09Z</time>
      </trkpt>
      <trkpt lat="47.0201" lon="-0.88325">
        <ele>131</ele>
        <time>2023-05-08T19:50:14Z</time>
      </trkpt>
      <trkpt lat="47.01987" lon="-0.88326">
        <ele>131</ele>
        <time>2023-05-08T19:50:18Z</time>
      </trkpt>
      <trkpt lat="47.01945" lon="-0.88319">
        <ele>133</ele>
        <time>2023-05-08T19:50:25Z</time>
      </trkpt>
      <trkpt lat="47.01867" lon="-0.88291">
        <ele>133</ele>
        <time>2023-05-08T19:50:40Z</time>
      </trkpt>
      <trkpt lat="47.01812" lon="-0.88281">
        <ele>133</ele>
        <time>2023-05-08T19:50:49Z</time>
      </trkpt>
      <trkpt lat="47.01778" lon="-0.88282">
        <ele>133</ele>
        <time>2023-05-08T19:50:55Z</time>
      </trkpt>
      <trkpt lat="47.0175" lon="-0.88287">
        <ele>133</ele>
        <time>2023-05-08T19:51:00Z</time>
      </trkpt>
      <trkpt lat="47.01734" lon="-0.88293">
        <ele>134</ele>
        <time>2023-05-08T19:51:03Z</time>
      </trkpt>
      <trkpt lat="47.01727" lon="-0.88297">
        <ele>134</ele>
        <time>2023-05-08T19:51:05Z</time>
      </trkpt>
      <trkpt lat="47.01722" lon="-0.88308">
        <ele>134</ele>
        <time>2023-05-08T19:51:06Z</time>
      </trkpt>
      <trkpt lat="47.01717" lon="-0.88311">
        <ele>134</ele>
        <time>2023-05-08T19:51:07Z</time>
      </trkpt>
      <trkpt lat="47.01711" lon="-0.88311">
        <ele>134</ele>
        <time>2023-05-08T19:51:08Z</time>
      </trkpt>
      <trkpt lat="47.01706" lon="-0.88308">
        <ele>134</ele>
        <time>2023-05-08T19:51:09Z</time>
      </trkpt>
      <trkpt lat="47.01702" lon="-0.88304">
        <ele>134</ele>
        <time>2023-05-08T19:51:10Z</time>
      </trkpt>
      <trkpt lat="47.01686" lon="-0.88303">
        <ele>134</ele>
        <time>2023-05-08T19:51:13Z</time>
      </trkpt>
      <trkpt lat="47.01557" lon="-0.88336">
        <ele>134</ele>
        <time>2023-05-08T19:51:36Z</time>
      </trkpt>
      <trkpt lat="47.01505" lon="-0.88346">
        <ele>135</ele>
        <time>2023-05-08T19:51:46Z</time>
      </trkpt>
      <trkpt lat="47.0138" lon="-0.88376">
        <ele>134</ele>
        <time>2023-05-08T19:52:08Z</time>
      </trkpt>
      <trkpt lat="47.01295" lon="-0.8841">
        <ele>134</ele>
        <time>2023-05-08T19:52:24Z</time>
      </trkpt>
      <trkpt lat="47.01128" lon="-0.88489">
        <ele>135</ele>
        <time>2023-05-08T19:52:55Z</time>
      </trkpt>
      <trkpt lat="47.01075" lon="-0.88518">
        <ele>134</ele>
        <time>2023-05-08T19:53:05Z</time>
      </trkpt>
      <trkpt lat="47.01" lon="-0.88569">
        <ele>133</ele>
        <time>2023-05-08T19:53:20Z</time>
      </trkpt>
      <trkpt lat="47.0099" lon="-0.88543">
        <ele>133</ele>
        <time>2023-05-08T19:53:24Z</time>
      </trkpt>
      <trkpt lat="47.00989" lon="-0.88524">
        <ele>134</ele>
        <time>2023-05-08T19:53:26Z</time>
      </trkpt>
      <trkpt lat="47.00991" lon="-0.88517">
        <ele>134</ele>
        <time>2023-05-08T19:53:27Z</time>
      </trkpt>
      <trkpt lat="47.00998" lon="-0.88505">
        <ele>134</ele>
        <time>2023-05-08T19:53:29Z</time>
      </trkpt>
      <trkpt lat="47.01007" lon="-0.88501">
        <ele>134</ele>
        <time>2023-05-08T19:53:30Z</time>
      </trkpt>
      <trkpt lat="47.01133" lon="-0.88464">
        <ele>136</ele>
        <time>2023-05-08T19:53:53Z</time>
      </trkpt>
      <trkpt lat="47.0114" lon="-0.88459">
        <ele>136</ele>
        <time>2023-05-08T19:53:55Z</time>
      </trkpt>
      <trkpt lat="47.01148" lon="-0.8845">
        <ele>136</ele>
        <time>2023-05-08T19:53:56Z</time>
      </trkpt>
      <trkpt lat="47.01153" lon="-0.88438">
        <ele>136</ele>
        <time>2023-05-08T19:53:58Z</time>
      </trkpt>
      <trkpt lat="47.01155" lon="-0.88425">
        <ele>137</ele>
        <time>2023-05-08T19:54:00Z</time>
      </trkpt>
      <trkpt lat="47.01156" lon="-0.88414">
        <ele>137</ele>
        <time>2023-05-08T19:54:01Z</time>
      </trkpt>
      <trkpt lat="47.01153" lon="-0.884">
        <ele>137</ele>
        <time>2023-05-08T19:54:03Z</time>
      </trkpt>
      <trkpt lat="47.01127" lon="-0.88339">
        <ele>136</ele>
        <time>2023-05-08T19:54:12Z</time>
      </trkpt>
      <trkpt lat="47.01127" lon="-0.88339">
        <ele>136</ele>
        <time>2023-05-08T19:54:12Z</time>
      </trkpt>
      <trkpt lat="47.01133" lon="-0.88352">
        <ele>136</ele>
        <time>2023-05-08T19:54:13Z</time>
      </trkpt>
      <trkpt lat="47.01143" lon="-0.88343">
        <ele>136</ele>
        <time>2023-05-08T19:54:16Z</time>
      </trkpt>
      <trkpt lat="47.01332" lon="-0.88247">
        <ele>133</ele>
        <time>2023-05-08T19:54:51Z</time>
      </trkpt>
      <trkpt lat="47.01347" lon="-0.88235">
        <ele>133</ele>
        <time>2023-05-08T19:54:54Z</time>
      </trkpt>
      <trkpt lat="47.0136" lon="-0.88221">
        <ele>133</ele>
        <time>2023-05-08T19:54:57Z</time>
      </trkpt>
      <trkpt lat="47.01381" lon="-0.88187">
        <ele>132</ele>
        <time>2023-05-08T19:55:03Z</time>
      </trkpt>
      <trkpt lat="47.01414" lon="-0.88109">
        <ele>130</ele>
        <time>2023-05-08T19:55:14Z</time>
      </trkpt>
      <trkpt lat="47.01426" lon="-0.88066">
        <ele>129</ele>
        <time>2023-05-08T19:55:19Z</time>
      </trkpt>
      <trkpt lat="47.0143" lon="-0.88044">
        <ele>128</ele>
        <time>2023-05-08T19:55:22Z</time>
      </trkpt>
      <trkpt lat="47.01454" lon="-0.87754">
        <ele>122</ele>
        <time>2023-05-08T19:55:58Z</time>
      </trkpt>
      <trkpt lat="47.01453" lon="-0.87718">
        <ele>122</ele>
        <time>2023-05-08T19:56:02Z</time>
      </trkpt>
      <trkpt lat="47.01447" lon="-0.87681">
        <ele>121</ele>
        <time>2023-05-08T19:56:07Z</time>
      </trkpt>
      <trkpt lat="47.01437" lon="-0.87651">
        <ele>121</ele>
        <time>2023-05-08T19:56:11Z</time>
      </trkpt>
      <trkpt lat="47.01373" lon="-0.87477">
        <ele>116</ele>
        <time>2023-05-08T19:56:35Z</time>
      </trkpt>
      <trkpt lat="47.01364" lon="-0.87441">
        <ele>116</ele>
        <time>2023-05-08T19:56:39Z</time>
      </trkpt>
      <trkpt lat="47.0136" lon="-0.87418">
        <ele>116</ele>
        <time>2023-05-08T19:56:42Z</time>
      </trkpt>
      <trkpt lat="47.01357" lon="-0.87391">
        <ele>117</ele>
        <time>2023-05-08T19:56:45Z</time>
      </trkpt>
      <trkpt lat="47.01357" lon="-0.87361">
        <ele>117</ele>
        <time>2023-05-08T19:56:49Z</time>
      </trkpt>
      <trkpt lat="47.01359" lon="-0.8733">
        <ele>118</ele>
        <time>2023-05-08T19:56:53Z</time>
      </trkpt>
      <trkpt lat="47.01389" lon="-0.87079">
        <ele>124</ele>
        <time>2023-05-08T19:57:24Z</time>
      </trkpt>
      <trkpt lat="47.01389" lon="-0.87044">
        <ele>124</ele>
        <time>2023-05-08T19:57:28Z</time>
      </trkpt>
      <trkpt lat="47.0138" lon="-0.86935">
        <ele>125</ele>
        <time>2023-05-08T19:57:41Z</time>
      </trkpt>
      <trkpt lat="47.01372" lon="-0.86868">
        <ele>125</ele>
        <time>2023-05-08T19:57:50Z</time>
      </trkpt>
      <trkpt lat="47.0136" lon="-0.86821">
        <ele>126</ele>
        <time>2023-05-08T19:57:56Z</time>
      </trkpt>
      <trkpt lat="47.01346" lon="-0.86773">
        <ele>126</ele>
        <time>2023-05-08T19:58:02Z</time>
      </trkpt>
      <trkpt lat="47.01303" lon="-0.86647">
        <ele>128</ele>
        <time>2023-05-08T19:58:19Z</time>
      </trkpt>
      <trkpt lat="47.01283" lon="-0.8657">
        <ele>129</ele>
        <time>2023-05-08T19:58:29Z</time>
      </trkpt>
      <trkpt lat="47.01262" lon="-0.86517">
        <ele>129</ele>
        <time>2023-05-08T19:58:37Z</time>
      </trkpt>
      <trkpt lat="47.01182" lon="-0.86351">
        <ele>128</ele>
        <time>2023-05-08T19:59:01Z</time>
      </trkpt>
      <trkpt lat="47.01146" lon="-0.86289">
        <ele>127</ele>
        <time>2023-05-08T19:59:11Z</time>
      </trkpt>
      <trkpt lat="47.01122" lon="-0.86266">
        <ele>126</ele>
        <time>2023-05-08T19:59:16Z</time>
      </trkpt>
      <trkpt lat="47.01093" lon="-0.86255">
        <ele>126</ele>
        <time>2023-05-08T19:59:22Z</time>
      </trkpt>
      <trkpt lat="47.01077" lon="-0.86236">
        <ele>125</ele>
        <time>2023-05-08T19:59:25Z</time>
      </trkpt>
      <trkpt lat="47.01068" lon="-0.8621">
        <ele>124</ele>
        <time>2023-05-08T19:59:29Z</time>
      </trkpt>
      <trkpt lat="47.01063" lon="-0.86162">
        <ele>121</ele>
        <time>2023-05-08T19:59:35Z</time>
      </trkpt>
      <trkpt lat="47.01054" lon="-0.8609">
        <ele>119</ele>
        <time>2023-05-08T19:59:43Z</time>
      </trkpt>
      <trkpt lat="47.01049" lon="-0.86064">
        <ele>118</ele>
        <time>2023-05-08T19:59:47Z</time>
      </trkpt>
      <trkpt lat="47.01042" lon="-0.86038">
        <ele>117</ele>
        <time>2023-05-08T19:59:50Z</time>
      </trkpt>
      <trkpt lat="47.01025" lon="-0.85996">
        <ele>116</ele>
        <time>2023-05-08T19:59:56Z</time>
      </trkpt>
      <trkpt lat="47.01005" lon="-0.85963">
        <ele>116</ele>
        <time>2023-05-08T20:00:01Z</time>
      </trkpt>
      <trkpt lat="47.00982" lon="-0.85939">
        <ele>117</ele>
        <time>2023-05-08T20:00:06Z</time>
      </trkpt>
      <trkpt lat="47.00971" lon="-0.85925">
        <ele>117</ele>
        <time>2023-05-08T20:00:09Z</time>
      </trkpt>
      <trkpt lat="47.0094" lon="-0.85861">
        <ele>119</ele>
        <time>2023-05-08T20:00:19Z</time>
      </trkpt>
      <trkpt lat="47.00922" lon="-0.85834">
        <ele>120</ele>
        <time>2023-05-08T20:00:23Z</time>
      </trkpt>
      <trkpt lat="47.00754" lon="-0.85616">
        <ele>125</ele>
        <time>2023-05-08T20:01:03Z</time>
      </trkpt>
      <trkpt lat="47.00728" lon="-0.8558">
        <ele>127</ele>
        <time>2023-05-08T20:01:09Z</time>
      </trkpt>
      <trkpt lat="47.007" lon="-0.85535">
        <ele>129</ele>
        <time>2023-05-08T20:01:17Z</time>
      </trkpt>
      <trkpt lat="47.00677" lon="-0.85503">
        <ele>130</ele>
        <time>2023-05-08T20:01:22Z</time>
      </trkpt>
      <trkpt lat="47.0071" lon="-0.85467">
        <ele>129</ele>
        <time>2023-05-08T20:01:30Z</time>
      </trkpt>
      <trkpt lat="47.0071" lon="-0.85467">
        <ele>129</ele>
        <time>2023-05-08T20:01:30Z</time>
      </trkpt>
      <trkpt lat="47.00727" lon="-0.8545">
        <ele>129</ele>
        <time>2023-05-08T20:01:33Z</time>
      </trkpt>
      <trkpt lat="47.00745" lon="-0.85439">
        <ele>128</ele>
        <time>2023-05-08T20:01:37Z</time>
      </trkpt>
      <trkpt lat="47.00768" lon="-0.85432">
        <ele>127</ele>
        <time>2023-05-08T20:01:41Z</time>
      </trkpt>
      <trkpt lat="47.00788" lon="-0.85433">
        <ele>126</ele>
        <time>2023-05-08T20:01:45Z</time>
      </trkpt>
      <trkpt lat="47.00847" lon="-0.85442">
        <ele>122</ele>
        <time>2023-05-08T20:01:55Z</time>
      </trkpt>
      <trkpt lat="47.00863" lon="-0.85441">
        <ele>121</ele>
        <time>2023-05-08T20:01:58Z</time>
      </trkpt>
      <trkpt lat="47.00879" lon="-0.85437">
        <ele>120</ele>
        <time>2023-05-08T20:02:01Z</time>
      </trkpt>
      <trkpt lat="47.00968" lon="-0.85373">
        <ele>112</ele>
        <time>2023-05-08T20:02:19Z</time>
      </trkpt>
      <trkpt lat="47.00977" lon="-0.85358">
        <ele>111</ele>
        <time>2023-05-08T20:02:21Z</time>
      </trkpt>
      <trkpt lat="47.00983" lon="-0.85339">
        <ele>110</ele>
        <time>2023-05-08T20:02:24Z</time>
      </trkpt>
      <trkpt lat="47.00991" lon="-0.85283">
        <ele>105</ele>
        <time>2023-05-08T20:02:31Z</time>
      </trkpt>
      <trkpt lat="47.01203" lon="-0.85255">
        <ele>95</ele>
        <time>2023-05-08T20:03:08Z</time>
      </trkpt>
      <trkpt lat="47.01251" lon="-0.85235">
        <ele>95</ele>
        <time>2023-05-08T20:03:17Z</time>
      </trkpt>
      <trkpt lat="47.01313" lon="-0.85197">
        <ele>95</ele>
        <time>2023-05-08T20:03:29Z</time>
      </trkpt>
      <trkpt lat="47.01378" lon="-0.85145">
        <ele>94</ele>
        <time>2023-05-08T20:03:42Z</time>
      </trkpt>
      <trkpt lat="47.01452" lon="-0.85104">
        <ele>93</ele>
        <time>2023-05-08T20:03:56Z</time>
      </trkpt>
      <trkpt lat="47.01572" lon="-0.85064">
        <ele>92</ele>
        <time>2023-05-08T20:04:18Z</time>
      </trkpt>
      <trkpt lat="47.01806" lon="-0.84991">
        <ele>87</ele>
        <time>2023-05-08T20:05:01Z</time>
      </trkpt>
      <trkpt lat="47.01837" lon="-0.84984">
        <ele>87</ele>
        <time>2023-05-08T20:05:07Z</time>
      </trkpt>
      <trkpt lat="47.01884" lon="-0.84981">
        <ele>86</ele>
        <time>2023-05-08T20:05:15Z</time>
      </trkpt>
      <trkpt lat="47.01933" lon="-0.84985">
        <ele>85</ele>
        <time>2023-05-08T20:05:24Z</time>
      </trkpt>
      <trkpt lat="47.01981" lon="-0.84998">
        <ele>86</ele>
        <time>2023-05-08T20:05:32Z</time>
      </trkpt>
      <trkpt lat="47.02199" lon="-0.85067">
        <ele>80</ele>
        <time>2023-05-08T20:06:12Z</time>
      </trkpt>
      <trkpt lat="47.02244" lon="-0.85093">
        <ele>80</ele>
        <time>2023-05-08T20:06:21Z</time>
      </trkpt>
      <trkpt lat="47.02287" lon="-0.85122">
        <ele>80</ele>
        <time>2023-05-08T20:06:29Z</time>
      </trkpt>
      <trkpt lat="47.02319" lon="-0.85153">
        <ele>80</ele>
        <time>2023-05-08T20:06:36Z</time>
      </trkpt>
      <trkpt lat="47.02362" lon="-0.85204">
        <ele>80</ele>
        <time>2023-05-08T20:06:46Z</time>
      </trkpt>
      <trkpt lat="47.02395" lon="-0.85255">
        <ele>79</ele>
        <time>2023-05-08T20:06:54Z</time>
      </trkpt>
      <trkpt lat="47.02473" lon="-0.85392">
        <ele>79</ele>
        <time>2023-05-08T20:07:16Z</time>
      </trkpt>
      <trkpt lat="47.02586" lon="-0.85347">
        <ele>78</ele>
        <time>2023-05-08T20:07:37Z</time>
      </trkpt>
      <trkpt lat="47.02579" lon="-0.8533">
        <ele>78</ele>
        <time>2023-05-08T20:07:39Z</time>
      </trkpt>
      <trkpt lat="47.02591" lon="-0.85326">
        <ele>79</ele>
        <time>2023-05-08T20:07:41Z</time>
      </trkpt>
      <trkpt lat="47.02597" lon="-0.8533">
        <ele>79</ele>
        <time>2023-05-08T20:07:42Z</time>
      </trkpt>
      <trkpt lat="47.02607" lon="-0.85329">
        <ele>80</ele>
        <time>2023-05-08T20:07:44Z</time>
      </trkpt>
      <trkpt lat="47.02702" lon="-0.85307">
        <ele>86</ele>
        <time>2023-05-08T20:08:01Z</time>
      </trkpt>
      <trkpt lat="47.0272" lon="-0.85297">
        <ele>87</ele>
        <time>2023-05-08T20:08:05Z</time>
      </trkpt>
      <trkpt lat="47.02734" lon="-0.85285">
        <ele>88</ele>
        <time>2023-05-08T20:08:08Z</time>
      </trkpt>
      <trkpt lat="47.02768" lon="-0.8524">
        <ele>91</ele>
        <time>2023-05-08T20:08:16Z</time>
      </trkpt>
      <trkpt lat="47.0278" lon="-0.85228">
        <ele>91</ele>
        <time>2023-05-08T20:08:18Z</time>
      </trkpt>
      <trkpt lat="47.02784" lon="-0.85238">
        <ele>91</ele>
        <time>2023-05-08T20:08:20Z</time>
      </trkpt>
      <trkpt lat="47.028" lon="-0.85228">
        <ele>91</ele>
        <time>2023-05-08T20:08:23Z</time>
      </trkpt>
      <trkpt lat="47.02894" lon="-0.85197">
        <ele>92</ele>
        <time>2023-05-08T20:08:40Z</time>
      </trkpt>
      <trkpt lat="47.03041" lon="-0.8521">
        <ele>93</ele>
        <time>2023-05-08T20:09:06Z</time>
      </trkpt>
      <trkpt lat="47.03059" lon="-0.8521">
        <ele>94</ele>
        <time>2023-05-08T20:09:09Z</time>
      </trkpt>
      <trkpt lat="47.03112" lon="-0.85197">
        <ele>97</ele>
        <time>2023-05-08T20:09:19Z</time>
      </trkpt>
      <trkpt lat="47.03112" lon="-0.85197">
        <ele>97</ele>
        <time>2023-05-08T20:09:19Z</time>
      </trkpt>
      <trkpt lat="47.03137" lon="-0.85192">
        <ele>98</ele>
        <time>2023-05-08T20:09:23Z</time>
      </trkpt>
      <trkpt lat="47.03188" lon="-0.85196">
        <ele>98</ele>
        <time>2023-05-08T20:09:33Z</time>
      </trkpt>
      <trkpt lat="47.0319" lon="-0.85204">
        <ele>98</ele>
        <time>2023-05-08T20:09:34Z</time>
      </trkpt>
      <trkpt lat="47.03218" lon="-0.85218">
        <ele>98</ele>
        <time>2023-05-08T20:09:39Z</time>
      </trkpt>
      <trkpt lat="47.03257" lon="-0.85234">
        <ele>97</ele>
        <time>2023-05-08T20:09:46Z</time>
      </trkpt>
      <trkpt lat="47.0329" lon="-0.85254">
        <ele>97</ele>
        <time>2023-05-08T20:09:52Z</time>
      </trkpt>
      <trkpt lat="47.03295" lon="-0.85248">
        <ele>98</ele>
        <time>2023-05-08T20:09:54Z</time>
      </trkpt>
      <trkpt lat="47.03353" lon="-0.853">
        <ele>96</ele>
        <time>2023-05-08T20:10:06Z</time>
      </trkpt>
      <trkpt lat="47.0343" lon="-0.85392">
        <ele>94</ele>
        <time>2023-05-08T20:10:23Z</time>
      </trkpt>
      <trkpt lat="47.03461" lon="-0.85425">
        <ele>94</ele>
        <time>2023-05-08T20:10:30Z</time>
      </trkpt>
      <trkpt lat="47.03541" lon="-0.85527">
        <ele>93</ele>
        <time>2023-05-08T20:10:49Z</time>
      </trkpt>
      <trkpt lat="47.03561" lon="-0.85546">
        <ele>92</ele>
        <time>2023-05-08T20:10:53Z</time>
      </trkpt>
      <trkpt lat="47.0361" lon="-0.85583">
        <ele>91</ele>
        <time>2023-05-08T20:11:03Z</time>
      </trkpt>
      <trkpt lat="47.03671" lon="-0.85623">
        <ele>92</ele>
        <time>2023-05-08T20:11:15Z</time>
      </trkpt>
      <trkpt lat="47.03721" lon="-0.85664">
        <ele>93</ele>
        <time>2023-05-08T20:11:25Z</time>
      </trkpt>
      <trkpt lat="47.03779" lon="-0.85694">
        <ele>94</ele>
        <time>2023-05-08T20:11:36Z</time>
      </trkpt>
      <trkpt lat="47.03858" lon="-0.85748">
        <ele>91</ele>
        <time>2023-05-08T20:11:52Z</time>
      </trkpt>
      <trkpt lat="47.03878" lon="-0.85755">
        <ele>90</ele>
        <time>2023-05-08T20:11:55Z</time>
      </trkpt>
      <trkpt lat="47.03896" lon="-0.85755">
        <ele>90</ele>
        <time>2023-05-08T20:11:58Z</time>
      </trkpt>
      <trkpt lat="47.0392" lon="-0.8575">
        <ele>89</ele>
        <time>2023-05-08T20:12:03Z</time>
      </trkpt>
      <trkpt lat="47.03989" lon="-0.85713">
        <ele>90</ele>
        <time>2023-05-08T20:12:16Z</time>
      </trkpt>
      <trkpt lat="47.04011" lon="-0.85709">
        <ele>90</ele>
        <time>2023-05-08T20:12:20Z</time>
      </trkpt>
      <trkpt lat="47.04061" lon="-0.85715">
        <ele>89</ele>
        <time>2023-05-08T20:12:29Z</time>
      </trkpt>
      <trkpt lat="47.04096" lon="-0.85724">
        <ele>89</ele>
        <time>2023-05-08T20:12:35Z</time>
      </trkpt>
      <trkpt lat="47.04135" lon="-0.85738">
        <ele>88</ele>
        <time>2023-05-08T20:12:42Z</time>
      </trkpt>
      <trkpt lat="47.04157" lon="-0.85743">
        <ele>87</ele>
        <time>2023-05-08T20:12:46Z</time>
      </trkpt>
      <trkpt lat="47.04172" lon="-0.85741">
        <ele>88</ele>
        <time>2023-05-08T20:12:49Z</time>
      </trkpt>
      <trkpt lat="47.04202" lon="-0.85725">
        <ele>89</ele>
        <time>2023-05-08T20:12:54Z</time>
      </trkpt>
      <trkpt lat="47.04214" lon="-0.85724">
        <ele>89</ele>
        <time>2023-05-08T20:12:57Z</time>
      </trkpt>
      <trkpt lat="47.04227" lon="-0.8573">
        <ele>89</ele>
        <time>2023-05-08T20:12:59Z</time>
      </trkpt>
      <trkpt lat="47.04238" lon="-0.85743">
        <ele>89</ele>
        <time>2023-05-08T20:13:02Z</time>
      </trkpt>
      <trkpt lat="47.04282" lon="-0.85817">
        <ele>89</ele>
        <time>2023-05-08T20:13:13Z</time>
      </trkpt>
      <trkpt lat="47.04317" lon="-0.85874">
        <ele>88</ele>
        <time>2023-05-08T20:13:23Z</time>
      </trkpt>
      <trkpt lat="47.04342" lon="-0.85908">
        <ele>88</ele>
        <time>2023-05-08T20:13:29Z</time>
      </trkpt>
      <trkpt lat="47.04368" lon="-0.85939">
        <ele>88</ele>
        <time>2023-05-08T20:13:35Z</time>
      </trkpt>
      <trkpt lat="47.0439" lon="-0.8596">
        <ele>88</ele>
        <time>2023-05-08T20:13:39Z</time>
      </trkpt>
      <trkpt lat="47.04424" lon="-0.85984">
        <ele>88</ele>
        <time>2023-05-08T20:13:46Z</time>
      </trkpt>
      <trkpt lat="47.04452" lon="-0.85998">
        <ele>86</ele>
        <time>2023-05-08T20:13:51Z</time>
      </trkpt>
      <trkpt lat="47.04472" lon="-0.86005">
        <ele>85</ele>
        <time>2023-05-08T20:13:55Z</time>
      </trkpt>
      <trkpt lat="47.04506" lon="-0.86009">
        <ele>85</ele>
        <time>2023-05-08T20:14:01Z</time>
      </trkpt>
      <trkpt lat="47.04518" lon="-0.86016">
        <ele>85</ele>
        <time>2023-05-08T20:14:03Z</time>
      </trkpt>
      <trkpt lat="47.04538" lon="-0.86038">
        <ele>84</ele>
        <time>2023-05-08T20:14:08Z</time>
      </trkpt>
      <trkpt lat="47.04583" lon="-0.86097">
        <ele>84</ele>
        <time>2023-05-08T20:14:19Z</time>
      </trkpt>
      <trkpt lat="47.04599" lon="-0.86114">
        <ele>83</ele>
        <time>2023-05-08T20:14:22Z</time>
      </trkpt>
      <trkpt lat="47.0462" lon="-0.86126">
        <ele>83</ele>
        <time>2023-05-08T20:14:26Z</time>
      </trkpt>
      <trkpt lat="47.04712" lon="-0.86152">
        <ele>84</ele>
        <time>2023-05-08T20:14:43Z</time>
      </trkpt>
      <trkpt lat="47.04727" lon="-0.86151">
        <ele>84</ele>
        <time>2023-05-08T20:14:46Z</time>
      </trkpt>
      <trkpt lat="47.04735" lon="-0.86163">
        <ele>84</ele>
        <time>2023-05-08T20:14:48Z</time>
      </trkpt>
      <trkpt lat="47.0476" lon="-0.86213">
        <ele>83</ele>
        <time>2023-05-08T20:14:55Z</time>
      </trkpt>
      <trkpt lat="47.04779" lon="-0.86246">
        <ele>82</ele>
        <time>2023-05-08T20:15:00Z</time>
      </trkpt>
      <trkpt lat="47.04814" lon="-0.863">
        <ele>82</ele>
        <time>2023-05-08T20:15:09Z</time>
      </trkpt>
      <trkpt lat="47.04823" lon="-0.86319">
        <ele>82</ele>
        <time>2023-05-08T20:15:12Z</time>
      </trkpt>
      <trkpt lat="47.04841" lon="-0.86378">
        <ele>81</ele>
        <time>2023-05-08T20:15:20Z</time>
      </trkpt>
      <trkpt lat="47.04907" lon="-0.86555">
        <ele>78</ele>
        <time>2023-05-08T20:15:44Z</time>
      </trkpt>
      <trkpt lat="47.04931" lon="-0.86615">
        <ele>78</ele>
        <time>2023-05-08T20:15:53Z</time>
      </trkpt>
      <trkpt lat="47.04954" lon="-0.86488">
        <ele>81</ele>
        <time>2023-05-08T20:16:09Z</time>
      </trkpt>
      <trkpt lat="47.04984" lon="-0.86375">
        <ele>83</ele>
        <time>2023-05-08T20:16:24Z</time>
      </trkpt>
      <trkpt lat="47.04988" lon="-0.86346">
        <ele>84</ele>
        <time>2023-05-08T20:16:27Z</time>
      </trkpt>
      <trkpt lat="47.04987" lon="-0.86316">
        <ele>85</ele>
        <time>2023-05-08T20:16:31Z</time>
      </trkpt>
      <trkpt lat="47.04987" lon="-0.86316">
        <ele>85</ele>
        <time>2023-05-08T20:16:31Z</time>
      </trkpt>
      <trkpt lat="47.04985" lon="-0.86302">
        <ele>85</ele>
        <time>2023-05-08T20:16:32Z</time>
      </trkpt>
      <trkpt lat="47.04937" lon="-0.86176">
        <ele>87</ele>
        <time>2023-05-08T20:16:50Z</time>
      </trkpt>
      <trkpt lat="47.04752" lon="-0.85736">
        <ele>97</ele>
        <time>2023-05-08T20:17:53Z</time>
      </trkpt>
      <trkpt lat="47.04736" lon="-0.85705">
        <ele>98</ele>
        <time>2023-05-08T20:17:57Z</time>
      </trkpt>
      <trkpt lat="47.04718" lon="-0.85674">
        <ele>100</ele>
        <time>2023-05-08T20:18:02Z</time>
      </trkpt>
      <trkpt lat="47.04708" lon="-0.85649">
        <ele>100</ele>
        <time>2023-05-08T20:18:06Z</time>
      </trkpt>
      <trkpt lat="47.047" lon="-0.85625">
        <ele>101</ele>
        <time>2023-05-08T20:18:09Z</time>
      </trkpt>
      <trkpt lat="47.04693" lon="-0.85582">
        <ele>101</ele>
        <time>2023-05-08T20:18:14Z</time>
      </trkpt>
      <trkpt lat="47.04692" lon="-0.85571">
        <ele>102</ele>
        <time>2023-05-08T20:18:16Z</time>
      </trkpt>
      <trkpt lat="47.04694" lon="-0.85547">
        <ele>102</ele>
        <time>2023-05-08T20:18:19Z</time>
      </trkpt>
      <trkpt lat="47.04686" lon="-0.85507">
        <ele>103</ele>
        <time>2023-05-08T20:18:24Z</time>
      </trkpt>
      <trkpt lat="47.04683" lon="-0.85494">
        <ele>104</ele>
        <time>2023-05-08T20:18:25Z</time>
      </trkpt>
      <trkpt lat="47.04668" lon="-0.85509">
        <ele>103</ele>
        <time>2023-05-08T20:18:29Z</time>
      </trkpt>
      <trkpt lat="47.04667" lon="-0.85498">
        <ele>103</ele>
        <time>2023-05-08T20:18:30Z</time>
      </trkpt>
      <trkpt lat="47.04672" lon="-0.85492">
        <ele>103</ele>
        <time>2023-05-08T20:18:31Z</time>
      </trkpt>
      <trkpt lat="47.04673" lon="-0.85488">
        <ele>104</ele>
        <time>2023-05-08T20:18:32Z</time>
      </trkpt>
      <trkpt lat="47.04645" lon="-0.85392">
        <ele>107</ele>
        <time>2023-05-08T20:18:44Z</time>
      </trkpt>
      <trkpt lat="47.0459" lon="-0.8523">
        <ele>113</ele>
        <time>2023-05-08T20:19:06Z</time>
      </trkpt>
      <trkpt lat="47.04589" lon="-0.85217">
        <ele>113</ele>
        <time>2023-05-08T20:19:08Z</time>
      </trkpt>
      <trkpt lat="47.04594" lon="-0.85196">
        <ele>114</ele>
        <time>2023-05-08T20:19:11Z</time>
      </trkpt>
      <trkpt lat="47.04628" lon="-0.85117">
        <ele>116</ele>
        <time>2023-05-08T20:19:22Z</time>
      </trkpt>
      <trkpt lat="47.0463" lon="-0.84972">
        <ele>118</ele>
        <time>2023-05-08T20:19:39Z</time>
      </trkpt>
      <trkpt lat="47.04637" lon="-0.84968">
        <ele>118</ele>
        <time>2023-05-08T20:19:41Z</time>
      </trkpt>
      <trkpt lat="47.04637" lon="-0.84827">
        <ele>119</ele>
        <time>2023-05-08T20:19:58Z</time>
      </trkpt>
      <trkpt lat="47.04681" lon="-0.84722">
        <ele>123</ele>
        <time>2023-05-08T20:20:13Z</time>
      </trkpt>
      <trkpt lat="47.0459" lon="-0.84623">
        <ele>121</ele>
        <time>2023-05-08T20:20:33Z</time>
      </trkpt>
      <trkpt lat="47.04531" lon="-0.84556">
        <ele>123</ele>
        <time>2023-05-08T20:20:46Z</time>
      </trkpt>
      <trkpt lat="47.04508" lon="-0.84527">
        <ele>123</ele>
        <time>2023-05-08T20:20:52Z</time>
      </trkpt>
      <trkpt lat="47.04465" lon="-0.84465">
        <ele>124</ele>
        <time>2023-05-08T20:21:02Z</time>
      </trkpt>
      <trkpt lat="47.04359" lon="-0.8429">
        <ele>124</ele>
        <time>2023-05-08T20:21:31Z</time>
      </trkpt>
      <trkpt lat="47.04367" lon="-0.8428">
        <ele>125</ele>
        <time>2023-05-08T20:21:33Z</time>
      </trkpt>
      <trkpt lat="47.04367" lon="-0.8428">
        <ele>125</ele>
        <time>2023-05-08T20:21:33Z</time>
      </trkpt>
      <trkpt lat="47.04433" lon="-0.84195">
        <ele>127</ele>
        <time>2023-05-08T20:21:48Z</time>
      </trkpt>
      <trkpt lat="47.04446" lon="-0.84176">
        <ele>128</ele>
        <time>2023-05-08T20:21:52Z</time>
      </trkpt>
      <trkpt lat="47.04457" lon="-0.84155">
        <ele>128</ele>
        <time>2023-05-08T20:21:55Z</time>
      </trkpt>
      <trkpt lat="47.04489" lon="-0.84074">
        <ele>126</ele>
        <time>2023-05-08T20:22:06Z</time>
      </trkpt>
      <trkpt lat="47.045" lon="-0.84052">
        <ele>126</ele>
        <time>2023-05-08T20:22:09Z</time>
      </trkpt>
      <trkpt lat="47.04513" lon="-0.84042">
        <ele>127</ele>
        <time>2023-05-08T20:22:12Z</time>
      </trkpt>
      <trkpt lat="47.04585" lon="-0.84014">
        <ele>129</ele>
        <time>2023-05-08T20:22:25Z</time>
      </trkpt>
      <trkpt lat="47.04605" lon="-0.84003">
        <ele>129</ele>
        <time>2023-05-08T20:22:29Z</time>
      </trkpt>
      <trkpt lat="47.04613" lon="-0.83997">
        <ele>129</ele>
        <time>2023-05-08T20:22:31Z</time>
      </trkpt>
      <trkpt lat="47.04641" lon="-0.83968">
        <ele>129</ele>
        <time>2023-05-08T20:22:37Z</time>
      </trkpt>
      <trkpt lat="47.04696" lon="-0.83911">
        <ele>129</ele>
        <time>2023-05-08T20:22:49Z</time>
      </trkpt>
      <trkpt lat="47.04711" lon="-0.83902">
        <ele>129</ele>
        <time>2023-05-08T20:22:52Z</time>
      </trkpt>
      <trkpt lat="47.04727" lon="-0.83903">
        <ele>129</ele>
        <time>2023-05-08T20:22:55Z</time>
      </trkpt>
      <trkpt lat="47.04742" lon="-0.83911">
        <ele>129</ele>
        <time>2023-05-08T20:22:57Z</time>
      </trkpt>
      <trkpt lat="47.04749" lon="-0.83919">
        <ele>129</ele>
        <time>2023-05-08T20:22:59Z</time>
      </trkpt>
      <trkpt lat="47.04768" lon="-0.83956">
        <ele>130</ele>
        <time>2023-05-08T20:23:05Z</time>
      </trkpt>
      <trkpt lat="47.04775" lon="-0.83967">
        <ele>130</ele>
        <time>2023-05-08T20:23:06Z</time>
      </trkpt>
      <trkpt lat="47.04782" lon="-0.83973">
        <ele>130</ele>
        <time>2023-05-08T20:23:08Z</time>
      </trkpt>
      <trkpt lat="47.04796" lon="-0.83981">
        <ele>130</ele>
        <time>2023-05-08T20:23:10Z</time>
      </trkpt>
      <trkpt lat="47.04805" lon="-0.83981">
        <ele>130</ele>
        <time>2023-05-08T20:23:12Z</time>
      </trkpt>
      <trkpt lat="47.04818" lon="-0.83979">
        <ele>130</ele>
        <time>2023-05-08T20:23:14Z</time>
      </trkpt>
      <trkpt lat="47.04935" lon="-0.83943">
        <ele>129</ele>
        <time>2023-05-08T20:23:36Z</time>
      </trkpt>
      <trkpt lat="47.04935" lon="-0.83943">
        <ele>129</ele>
        <time>2023-05-08T20:23:36Z</time>
      </trkpt>
      <trkpt lat="47.04965" lon="-0.83933">
        <ele>128</ele>
        <time>2023-05-08T20:23:41Z</time>
      </trkpt>
      <trkpt lat="47.04961" lon="-0.83825">
        <ele>129</ele>
        <time>2023-05-08T20:23:54Z</time>
      </trkpt>
      <trkpt lat="47.04957" lon="-0.83757">
        <ele>130</ele>
        <time>2023-05-08T20:24:03Z</time>
      </trkpt>
      <trkpt lat="47.04947" lon="-0.83662">
        <ele>131</ele>
        <time>2023-05-08T20:24:14Z</time>
      </trkpt>
      <trkpt lat="47.04936" lon="-0.83587">
        <ele>132</ele>
        <time>2023-05-08T20:24:23Z</time>
      </trkpt>
      <trkpt lat="47.04921" lon="-0.83515">
        <ele>132</ele>
        <time>2023-05-08T20:24:33Z</time>
      </trkpt>
      <trkpt lat="47.04901" lon="-0.83438">
        <ele>131</ele>
        <time>2023-05-08T20:24:43Z</time>
      </trkpt>
      <trkpt lat="47.04847" lon="-0.83262">
        <ele>131</ele>
        <time>2023-05-08T20:25:06Z</time>
      </trkpt>
      <trkpt lat="47.04792" lon="-0.83092">
        <ele>131</ele>
        <time>2023-05-08T20:25:29Z</time>
      </trkpt>
      <trkpt lat="47.04772" lon="-0.83033">
        <ele>132</ele>
        <time>2023-05-08T20:25:37Z</time>
      </trkpt>
      <trkpt lat="47.04753" lon="-0.82982">
        <ele>133</ele>
        <time>2023-05-08T20:25:44Z</time>
      </trkpt>
      <trkpt lat="47.04728" lon="-0.82927">
        <ele>133</ele>
        <time>2023-05-08T20:25:52Z</time>
      </trkpt>
      <trkpt lat="47.04688" lon="-0.8285">
        <ele>132</ele>
        <time>2023-05-08T20:26:04Z</time>
      </trkpt>
      <trkpt lat="47.04618" lon="-0.82751">
        <ele>130</ele>
        <time>2023-05-08T20:26:21Z</time>
      </trkpt>
      <trkpt lat="47.0431" lon="-0.82371">
        <ele>104</ele>
        <time>2023-05-08T20:27:33Z</time>
      </trkpt>
      <trkpt lat="47.04175" lon="-0.82182">
        <ele>94</ele>
        <time>2023-05-08T20:28:06Z</time>
      </trkpt>
      <trkpt lat="47.04091" lon="-0.82026">
        <ele>92</ele>
        <time>2023-05-08T20:28:30Z</time>
      </trkpt>
      <trkpt lat="47.04001" lon="-0.81841">
        <ele>88</ele>
        <time>2023-05-08T20:28:57Z</time>
      </trkpt>
      <trkpt lat="47.03982" lon="-0.81795">
        <ele>88</ele>
        <time>2023-05-08T20:29:04Z</time>
      </trkpt>
      <trkpt lat="47.03963" lon="-0.81741">
        <ele>89</ele>
        <time>2023-05-08T20:29:11Z</time>
      </trkpt>
      <trkpt lat="47.03949" lon="-0.81698">
        <ele>90</ele>
        <time>2023-05-08T20:29:17Z</time>
      </trkpt>
      <trkpt lat="47.0393" lon="-0.81633">
        <ele>92</ele>
        <time>2023-05-08T20:29:26Z</time>
      </trkpt>
      <trkpt lat="47.0393" lon="-0.81633">
        <ele>92</ele>
        <time>2023-05-08T20:29:26Z</time>
      </trkpt>
      <trkpt lat="47.03934" lon="-0.8165">
        <ele>91</ele>
        <time>2023-05-08T20:29:28Z</time>
      </trkpt>
      <trkpt lat="47.03927" lon="-0.81653">
        <ele>92</ele>
        <time>2023-05-08T20:29:29Z</time>
      </trkpt>
      <trkpt lat="47.03849" lon="-0.81676">
        <ele>97</ele>
        <time>2023-05-08T20:29:43Z</time>
      </trkpt>
      <trkpt lat="47.03731" lon="-0.81704">
        <ele>103</ele>
        <time>2023-05-08T20:30:05Z</time>
      </trkpt>
      <trkpt lat="47.03655" lon="-0.81725">
        <ele>105</ele>
        <time>2023-05-08T20:30:18Z</time>
      </trkpt>
      <trkpt lat="47.0363" lon="-0.81735">
        <ele>105</ele>
        <time>2023-05-08T20:30:23Z</time>
      </trkpt>
      <trkpt lat="47.03625" lon="-0.81734">
        <ele>105</ele>
        <time>2023-05-08T20:30:24Z</time>
      </trkpt>
      <trkpt lat="47.0362" lon="-0.81728">
        <ele>105</ele>
        <time>2023-05-08T20:30:25Z</time>
      </trkpt>
      <trkpt lat="47.03616" lon="-0.81716">
        <ele>105</ele>
        <time>2023-05-08T20:30:27Z</time>
      </trkpt>
      <trkpt lat="47.03613" lon="-0.81695">
        <ele>105</ele>
        <time>2023-05-08T20:30:29Z</time>
      </trkpt>
      <trkpt lat="47.03607" lon="-0.81665">
        <ele>105</ele>
        <time>2023-05-08T20:30:33Z</time>
      </trkpt>
      <trkpt lat="47.03574" lon="-0.81544">
        <ele>105</ele>
        <time>2023-05-08T20:30:49Z</time>
      </trkpt>
      <trkpt lat="47.03518" lon="-0.81328">
        <ele>107</ele>
        <time>2023-05-08T20:31:17Z</time>
      </trkpt>
      <trkpt lat="47.03508" lon="-0.81302">
        <ele>107</ele>
        <time>2023-05-08T20:31:20Z</time>
      </trkpt>
      <trkpt lat="47.03495" lon="-0.81279">
        <ele>108</ele>
        <time>2023-05-08T20:31:24Z</time>
      </trkpt>
      <trkpt lat="47.03406" lon="-0.81155">
        <ele>108</ele>
        <time>2023-05-08T20:31:46Z</time>
      </trkpt>
      <trkpt lat="47.03386" lon="-0.8113">
        <ele>108</ele>
        <time>2023-05-08T20:31:51Z</time>
      </trkpt>
      <trkpt lat="47.03364" lon="-0.81107">
        <ele>108</ele>
        <time>2023-05-08T20:31:55Z</time>
      </trkpt>
      <trkpt lat="47.03326" lon="-0.81076">
        <ele>108</ele>
        <time>2023-05-08T20:32:03Z</time>
      </trkpt>
      <trkpt lat="47.03291" lon="-0.81053">
        <ele>108</ele>
        <time>2023-05-08T20:32:10Z</time>
      </trkpt>
      <trkpt lat="47.03253" lon="-0.81032">
        <ele>107</ele>
        <time>2023-05-08T20:32:17Z</time>
      </trkpt>
      <trkpt lat="47.03117" lon="-0.80949">
        <ele>108</ele>
        <time>2023-05-08T20:32:43Z</time>
      </trkpt>
      <trkpt lat="47.03092" lon="-0.80929">
        <ele>109</ele>
        <time>2023-05-08T20:32:48Z</time>
      </trkpt>
      <trkpt lat="47.02975" lon="-0.80787">
        <ele>113</ele>
        <time>2023-05-08T20:33:15Z</time>
      </trkpt>
      <trkpt lat="47.02949" lon="-0.80765">
        <ele>115</ele>
        <time>2023-05-08T20:33:21Z</time>
      </trkpt>
      <trkpt lat="47.02791" lon="-0.80667">
        <ele>124</ele>
        <time>2023-05-08T20:33:51Z</time>
      </trkpt>
      <trkpt lat="47.02675" lon="-0.806">
        <ele>125</ele>
        <time>2023-05-08T20:34:13Z</time>
      </trkpt>
      <trkpt lat="47.02648" lon="-0.80576">
        <ele>125</ele>
        <time>2023-05-08T20:34:19Z</time>
      </trkpt>
      <trkpt lat="47.02524" lon="-0.80446">
        <ele>127</ele>
        <time>2023-05-08T20:34:46Z</time>
      </trkpt>
      <trkpt lat="47.02456" lon="-0.80366">
        <ele>129</ele>
        <time>2023-05-08T20:35:02Z</time>
      </trkpt>
      <trkpt lat="47.02444" lon="-0.80351">
        <ele>130</ele>
        <time>2023-05-08T20:35:05Z</time>
      </trkpt>
      <trkpt lat="47.02444" lon="-0.80351">
        <ele>130</ele>
        <time>2023-05-08T20:35:05Z</time>
      </trkpt>
      <trkpt lat="47.02456" lon="-0.80366">
        <ele>129</ele>
        <time>2023-05-08T20:35:07Z</time>
      </trkpt>
      <trkpt lat="47.02443" lon="-0.80585">
        <ele>128</ele>
        <time>2023-05-08T20:35:34Z</time>
      </trkpt>
      <trkpt lat="47.02445" lon="-0.80636">
        <ele>127</ele>
        <time>2023-05-08T20:35:40Z</time>
      </trkpt>
      <trkpt lat="47.02448" lon="-0.80668">
        <ele>127</ele>
        <time>2023-05-08T20:35:44Z</time>
      </trkpt>
      <trkpt lat="47.02456" lon="-0.80702">
        <ele>127</ele>
        <time>2023-05-08T20:35:48Z</time>
      </trkpt>
      <trkpt lat="47.02466" lon="-0.80735">
        <ele>126</ele>
        <time>2023-05-08T20:35:53Z</time>
      </trkpt>
      <trkpt lat="47.02479" lon="-0.80768">
        <ele>127</ele>
        <time>2023-05-08T20:35:57Z</time>
      </trkpt>
      <trkpt lat="47.02491" lon="-0.80802">
        <ele>127</ele>
        <time>2023-05-08T20:36:02Z</time>
      </trkpt>
      <trkpt lat="47.02496" lon="-0.80834">
        <ele>128</ele>
        <time>2023-05-08T20:36:06Z</time>
      </trkpt>
      <trkpt lat="47.02493" lon="-0.80879">
        <ele>127</ele>
        <time>2023-05-08T20:36:12Z</time>
      </trkpt>
      <trkpt lat="47.02473" lon="-0.81033">
        <ele>127</ele>
        <time>2023-05-08T20:36:31Z</time>
      </trkpt>
      <trkpt lat="47.02461" lon="-0.81146">
        <ele>127</ele>
        <time>2023-05-08T20:36:44Z</time>
      </trkpt>
      <trkpt lat="47.02453" lon="-0.81253">
        <ele>126</ele>
        <time>2023-05-08T20:36:58Z</time>
      </trkpt>
      <trkpt lat="47.02447" lon="-0.81284">
        <ele>125</ele>
        <time>2023-05-08T20:37:01Z</time>
      </trkpt>
      <trkpt lat="47.02437" lon="-0.81307">
        <ele>125</ele>
        <time>2023-05-08T20:37:05Z</time>
      </trkpt>
      <trkpt lat="47.02377" lon="-0.81427">
        <ele>119</ele>
        <time>2023-05-08T20:37:23Z</time>
      </trkpt>
      <trkpt lat="47.0234" lon="-0.81488">
        <ele>116</ele>
        <time>2023-05-08T20:37:33Z</time>
      </trkpt>
      <trkpt lat="47.02325" lon="-0.81519">
        <ele>116</ele>
        <time>2023-05-08T20:37:37Z</time>
      </trkpt>
      <trkpt lat="47.02315" lon="-0.81561">
        <ele>114</ele>
        <time>2023-05-08T20:37:43Z</time>
      </trkpt>
      <trkpt lat="47.0231" lon="-0.81616">
        <ele>112</ele>
        <time>2023-05-08T20:37:49Z</time>
      </trkpt>
      <trkpt lat="47.02296" lon="-0.81685">
        <ele>109</ele>
        <time>2023-05-08T20:37:58Z</time>
      </trkpt>
      <trkpt lat="47.02291" lon="-0.81704">
        <ele>107</ele>
        <time>2023-05-08T20:38:01Z</time>
      </trkpt>
      <trkpt lat="47.02286" lon="-0.81714">
        <ele>107</ele>
        <time>2023-05-08T20:38:02Z</time>
      </trkpt>
      <trkpt lat="47.02253" lon="-0.81766">
        <ele>104</ele>
        <time>2023-05-08T20:38:11Z</time>
      </trkpt>
      <trkpt lat="47.02234" lon="-0.81806">
        <ele>102</ele>
        <time>2023-05-08T20:38:17Z</time>
      </trkpt>
      <trkpt lat="47.02221" lon="-0.81842">
        <ele>100</ele>
        <time>2023-05-08T20:38:22Z</time>
      </trkpt>
      <trkpt lat="47.02209" lon="-0.8188">
        <ele>98</ele>
        <time>2023-05-08T20:38:27Z</time>
      </trkpt>
      <trkpt lat="47.02202" lon="-0.81921">
        <ele>97</ele>
        <time>2023-05-08T20:38:32Z</time>
      </trkpt>
      <trkpt lat="47.02196" lon="-0.81967">
        <ele>96</ele>
        <time>2023-05-08T20:38:37Z</time>
      </trkpt>
      <trkpt lat="47.02172" lon="-0.82597">
        <ele>105</ele>
        <time>2023-05-08T20:39:54Z</time>
      </trkpt>
      <trkpt lat="47.02168" lon="-0.82622">
        <ele>105</ele>
        <time>2023-05-08T20:39:57Z</time>
      </trkpt>
      <trkpt lat="47.02161" lon="-0.82646">
        <ele>106</ele>
        <time>2023-05-08T20:40:00Z</time>
      </trkpt>
      <trkpt lat="47.02147" lon="-0.82676">
        <ele>107</ele>
        <time>2023-05-08T20:40:05Z</time>
      </trkpt>
      <trkpt lat="47.02138" lon="-0.8269">
        <ele>108</ele>
        <time>2023-05-08T20:40:07Z</time>
      </trkpt>
      <trkpt lat="47.02112" lon="-0.82717">
        <ele>109</ele>
        <time>2023-05-08T20:40:13Z</time>
      </trkpt>
      <trkpt lat="47.02085" lon="-0.82733">
        <ele>108</ele>
        <time>2023-05-08T20:40:18Z</time>
      </trkpt>
      <trkpt lat="47.02018" lon="-0.82764">
        <ele>107</ele>
        <time>2023-05-08T20:40:30Z</time>
      </trkpt>
      <trkpt lat="47.01995" lon="-0.82781">
        <ele>106</ele>
        <time>2023-05-08T20:40:35Z</time>
      </trkpt>
      <trkpt lat="47.01975" lon="-0.82805">
        <ele>106</ele>
        <time>2023-05-08T20:40:40Z</time>
      </trkpt>
      <trkpt lat="47.01964" lon="-0.82821">
        <ele>106</ele>
        <time>2023-05-08T20:40:42Z</time>
      </trkpt>
      <trkpt lat="47.01944" lon="-0.82882">
        <ele>109</ele>
        <time>2023-05-08T20:40:51Z</time>
      </trkpt>
      <trkpt lat="47.01924" lon="-0.82957">
        <ele>110</ele>
        <time>2023-05-08T20:41:00Z</time>
      </trkpt>
      <trkpt lat="47.01914" lon="-0.82987">
        <ele>111</ele>
        <time>2023-05-08T20:41:04Z</time>
      </trkpt>
      <trkpt lat="47.01823" lon="-0.83167">
        <ele>118</ele>
        <time>2023-05-08T20:41:32Z</time>
      </trkpt>
      <trkpt lat="47.01798" lon="-0.83205">
        <ele>118</ele>
        <time>2023-05-08T20:41:38Z</time>
      </trkpt>
      <trkpt lat="47.01771" lon="-0.83233">
        <ele>118</ele>
        <time>2023-05-08T20:41:44Z</time>
      </trkpt>
      <trkpt lat="47.01657" lon="-0.83335">
        <ele>116</ele>
        <time>2023-05-08T20:42:08Z</time>
      </trkpt>
      <trkpt lat="47.01614" lon="-0.83364">
        <ele>115</ele>
        <time>2023-05-08T20:42:16Z</time>
      </trkpt>
      <trkpt lat="47.01585" lon="-0.83377">
        <ele>115</ele>
        <time>2023-05-08T20:42:21Z</time>
      </trkpt>
      <trkpt lat="47.015" lon="-0.83405">
        <ele>115</ele>
        <time>2023-05-08T20:42:37Z</time>
      </trkpt>
      <trkpt lat="47.01481" lon="-0.83416">
        <ele>115</ele>
        <time>2023-05-08T20:42:41Z</time>
      </trkpt>
      <trkpt lat="47.01426" lon="-0.83467">
        <ele>114</ele>
        <time>2023-05-08T20:42:52Z</time>
      </trkpt>
      <trkpt lat="47.01376" lon="-0.83497">
        <ele>115</ele>
        <time>2023-05-08T20:43:02Z</time>
      </trkpt>
      <trkpt lat="47.01343" lon="-0.83513">
        <ele>116</ele>
        <time>2023-05-08T20:43:08Z</time>
      </trkpt>
      <trkpt lat="47.01326" lon="-0.83518">
        <ele>117</ele>
        <time>2023-05-08T20:43:11Z</time>
      </trkpt>
      <trkpt lat="47.01305" lon="-0.83521">
        <ele>117</ele>
        <time>2023-05-08T20:43:15Z</time>
      </trkpt>
      <trkpt lat="47.01255" lon="-0.83519">
        <ele>117</ele>
        <time>2023-05-08T20:43:24Z</time>
      </trkpt>
      <trkpt lat="47.01231" lon="-0.83524">
        <ele>117</ele>
        <time>2023-05-08T20:43:28Z</time>
      </trkpt>
      <trkpt lat="47.01209" lon="-0.83537">
        <ele>117</ele>
        <time>2023-05-08T20:43:32Z</time>
      </trkpt>
      <trkpt lat="47.01056" lon="-0.83657">
        <ele>121</ele>
        <time>2023-05-08T20:44:03Z</time>
      </trkpt>
      <trkpt lat="47.0075" lon="-0.83959">
        <ele>132</ele>
        <time>2023-05-08T20:45:09Z</time>
      </trkpt>
      <trkpt lat="47.00727" lon="-0.83988">
        <ele>132</ele>
        <time>2023-05-08T20:45:14Z</time>
      </trkpt>
      <trkpt lat="47.00721" lon="-0.83998">
        <ele>132</ele>
        <time>2023-05-08T20:45:16Z</time>
      </trkpt>
      <trkpt lat="47.00718" lon="-0.84008">
        <ele>132</ele>
        <time>2023-05-08T20:45:17Z</time>
      </trkpt>
      <trkpt lat="47.00717" lon="-0.84035">
        <ele>131</ele>
        <time>2023-05-08T20:45:20Z</time>
      </trkpt>
      <trkpt lat="47.00726" lon="-0.8416">
        <ele>128</ele>
        <time>2023-05-08T20:45:36Z</time>
      </trkpt>
      <trkpt lat="47.00726" lon="-0.84182">
        <ele>128</ele>
        <time>2023-05-08T20:45:38Z</time>
      </trkpt>
      <trkpt lat="47.00717" lon="-0.84257">
        <ele>127</ele>
        <time>2023-05-08T20:45:47Z</time>
      </trkpt>
      <trkpt lat="47.00718" lon="-0.8428">
        <ele>127</ele>
        <time>2023-05-08T20:45:50Z</time>
      </trkpt>
      <trkpt lat="47.00724" lon="-0.84285">
        <ele>127</ele>
        <time>2023-05-08T20:45:52Z</time>
      </trkpt>
      <trkpt lat="47.00726" lon="-0.8429">
        <ele>127</ele>
        <time>2023-05-08T20:45:52Z</time>
      </trkpt>
      <trkpt lat="47.00727" lon="-0.84301">
        <ele>127</ele>
        <time>2023-05-08T20:45:54Z</time>
      </trkpt>
      <trkpt lat="47.00727" lon="-0.84301">
        <ele>127</ele>
        <time>2023-05-08T20:45:54Z</time>
      </trkpt>
      <trkpt lat="47.00726" lon="-0.84305">
        <ele>127</ele>
        <time>2023-05-08T20:45:54Z</time>
      </trkpt>
      <trkpt lat="47.0072" lon="-0.84312">
        <ele>127</ele>
        <time>2023-05-08T20:45:55Z</time>
      </trkpt>
      <trkpt lat="47.00713" lon="-0.84313">
        <ele>127</ele>
        <time>2023-05-08T20:45:57Z</time>
      </trkpt>
      <trkpt lat="47.00709" lon="-0.84311">
        <ele>127</ele>
        <time>2023-05-08T20:45:57Z</time>
      </trkpt>
      <trkpt lat="47.00705" lon="-0.84303">
        <ele>127</ele>
        <time>2023-05-08T20:45:59Z</time>
      </trkpt>
      <trkpt lat="47.00705" lon="-0.84293">
        <ele>127</ele>
        <time>2023-05-08T20:46:00Z</time>
      </trkpt>
      <trkpt lat="47.00651" lon="-0.84273">
        <ele>128</ele>
        <time>2023-05-08T20:46:10Z</time>
      </trkpt>
      <trkpt lat="47.00623" lon="-0.84271">
        <ele>128</ele>
        <time>2023-05-08T20:46:15Z</time>
      </trkpt>
      <trkpt lat="47.00603" lon="-0.84274">
        <ele>128</ele>
        <time>2023-05-08T20:46:18Z</time>
      </trkpt>
      <trkpt lat="47.00578" lon="-0.84284">
        <ele>128</ele>
        <time>2023-05-08T20:46:23Z</time>
      </trkpt>
      <trkpt lat="47.00517" lon="-0.84319">
        <ele>130</ele>
        <time>2023-05-08T20:46:35Z</time>
      </trkpt>
      <trkpt lat="47.0051" lon="-0.84325">
        <ele>130</ele>
        <time>2023-05-08T20:46:36Z</time>
      </trkpt>
      <trkpt lat="47.00503" lon="-0.8431">
        <ele>130</ele>
        <time>2023-05-08T20:46:38Z</time>
      </trkpt>
      <trkpt lat="47.00463" lon="-0.84184">
        <ele>132</ele>
        <time>2023-05-08T20:46:55Z</time>
      </trkpt>
      <trkpt lat="47.0036" lon="-0.83922">
        <ele>135</ele>
        <time>2023-05-08T20:47:32Z</time>
      </trkpt>
      <trkpt lat="47.00342" lon="-0.83935">
        <ele>135</ele>
        <time>2023-05-08T20:47:35Z</time>
      </trkpt>
      <trkpt lat="47.00342" lon="-0.83935">
        <ele>135</ele>
        <time>2023-05-08T20:47:35Z</time>
      </trkpt>
      <trkpt lat="47.00216" lon="-0.84031">
        <ele>132</ele>
        <time>2023-05-08T20:48:01Z</time>
      </trkpt>
      <trkpt lat="47.00188" lon="-0.84048">
        <ele>132</ele>
        <time>2023-05-08T20:48:06Z</time>
      </trkpt>
      <trkpt lat="47.00159" lon="-0.84063">
        <ele>133</ele>
        <time>2023-05-08T20:48:12Z</time>
      </trkpt>
      <trkpt lat="47.00132" lon="-0.84074">
        <ele>133</ele>
        <time>2023-05-08T20:48:17Z</time>
      </trkpt>
      <trkpt lat="47.00005" lon="-0.84108">
        <ele>132</ele>
        <time>2023-05-08T20:48:39Z</time>
      </trkpt>
      <trkpt lat="46.99976" lon="-0.84124">
        <ele>133</ele>
        <time>2023-05-08T20:48:45Z</time>
      </trkpt>
      <trkpt lat="46.99951" lon="-0.84143">
        <ele>133</ele>
        <time>2023-05-08T20:48:50Z</time>
      </trkpt>
      <trkpt lat="46.99926" lon="-0.84157">
        <ele>134</ele>
        <time>2023-05-08T20:48:55Z</time>
      </trkpt>
      <trkpt lat="46.99842" lon="-0.84201">
        <ele>137</ele>
        <time>2023-05-08T20:49:11Z</time>
      </trkpt>
      <trkpt lat="46.99748" lon="-0.84244">
        <ele>139</ele>
        <time>2023-05-08T20:49:28Z</time>
      </trkpt>
      <trkpt lat="46.99707" lon="-0.84246">
        <ele>140</ele>
        <time>2023-05-08T20:49:35Z</time>
      </trkpt>
      <trkpt lat="46.99699" lon="-0.84248">
        <ele>140</ele>
        <time>2023-05-08T20:49:37Z</time>
      </trkpt>
      <trkpt lat="46.99688" lon="-0.84257">
        <ele>140</ele>
        <time>2023-05-08T20:49:39Z</time>
      </trkpt>
      <trkpt lat="46.99676" lon="-0.84263">
        <ele>140</ele>
        <time>2023-05-08T20:49:41Z</time>
      </trkpt>
      <trkpt lat="46.99663" lon="-0.84264">
        <ele>141</ele>
        <time>2023-05-08T20:49:44Z</time>
      </trkpt>
      <trkpt lat="46.99649" lon="-0.8426">
        <ele>141</ele>
        <time>2023-05-08T20:49:46Z</time>
      </trkpt>
      <trkpt lat="46.99613" lon="-0.84243">
        <ele>142</ele>
        <time>2023-05-08T20:49:53Z</time>
      </trkpt>
      <trkpt lat="46.99599" lon="-0.84242">
        <ele>143</ele>
        <time>2023-05-08T20:49:55Z</time>
      </trkpt>
      <trkpt lat="46.9958" lon="-0.84244">
        <ele>143</ele>
        <time>2023-05-08T20:49:59Z</time>
      </trkpt>
      <trkpt lat="46.99538" lon="-0.84256">
        <ele>143</ele>
        <time>2023-05-08T20:50:06Z</time>
      </trkpt>
      <trkpt lat="46.9941" lon="-0.84298">
        <ele>145</ele>
        <time>2023-05-08T20:50:30Z</time>
      </trkpt>
      <trkpt lat="46.99334" lon="-0.84318">
        <ele>147</ele>
        <time>2023-05-08T20:50:44Z</time>
      </trkpt>
      <trkpt lat="46.99284" lon="-0.84325">
        <ele>150</ele>
        <time>2023-05-08T20:50:52Z</time>
      </trkpt>
      <trkpt lat="46.99265" lon="-0.84325">
        <ele>151</ele>
        <time>2023-05-08T20:50:56Z</time>
      </trkpt>
      <trkpt lat="46.99229" lon="-0.8432">
        <ele>152</ele>
        <time>2023-05-08T20:51:02Z</time>
      </trkpt>
      <trkpt lat="46.98986" lon="-0.84287">
        <ele>155</ele>
        <time>2023-05-08T20:51:46Z</time>
      </trkpt>
      <trkpt lat="46.98962" lon="-0.84281">
        <ele>155</ele>
        <time>2023-05-08T20:51:50Z</time>
      </trkpt>
      <trkpt lat="46.98962" lon="-0.84288">
        <ele>155</ele>
        <time>2023-05-08T20:51:51Z</time>
      </trkpt>
      <trkpt lat="46.98956" lon="-0.843">
        <ele>155</ele>
        <time>2023-05-08T20:51:53Z</time>
      </trkpt>
      <trkpt lat="46.98952" lon="-0.84303">
        <ele>155</ele>
        <time>2023-05-08T20:51:54Z</time>
      </trkpt>
      <trkpt lat="46.98947" lon="-0.84305">
        <ele>155</ele>
        <time>2023-05-08T20:51:54Z</time>
      </trkpt>
      <trkpt lat="46.98938" lon="-0.843">
        <ele>155</ele>
        <time>2023-05-08T20:51:56Z</time>
      </trkpt>
      <trkpt lat="46.98934" lon="-0.84295">
        <ele>156</ele>
        <time>2023-05-08T20:51:57Z</time>
      </trkpt>
      <trkpt lat="46.98851" lon="-0.84388">
        <ele>154</ele>
        <time>2023-05-08T20:52:16Z</time>
      </trkpt>
      <trkpt lat="46.98801" lon="-0.84449">
        <ele>153</ele>
        <time>2023-05-08T20:52:27Z</time>
      </trkpt>
      <trkpt lat="46.98802" lon="-0.84454">
        <ele>153</ele>
        <time>2023-05-08T20:52:28Z</time>
      </trkpt>
      <trkpt lat="46.98802" lon="-0.84465">
        <ele>152</ele>
        <time>2023-05-08T20:52:29Z</time>
      </trkpt>
      <trkpt lat="46.988" lon="-0.84469">
        <ele>152</ele>
        <time>2023-05-08T20:52:30Z</time>
      </trkpt>
      <trkpt lat="46.98794" lon="-0.84476">
        <ele>152</ele>
        <time>2023-05-08T20:52:31Z</time>
      </trkpt>
      <trkpt lat="46.9879" lon="-0.84477">
        <ele>152</ele>
        <time>2023-05-08T20:52:32Z</time>
      </trkpt>
      <trkpt lat="46.98781" lon="-0.84474">
        <ele>152</ele>
        <time>2023-05-08T20:52:34Z</time>
      </trkpt>
      <trkpt lat="46.98776" lon="-0.84463">
        <ele>152</ele>
        <time>2023-05-08T20:52:35Z</time>
      </trkpt>
      <trkpt lat="46.98776" lon="-0.84457">
        <ele>152</ele>
        <time>2023-05-08T20:52:36Z</time>
      </trkpt>
      <trkpt lat="46.9855" lon="-0.84461">
        <ele>150</ele>
        <time>2023-05-08T20:53:16Z</time>
      </trkpt>
      <trkpt lat="46.98551" lon="-0.84444">
        <ele>150</ele>
        <time>2023-05-08T20:53:18Z</time>
      </trkpt>
      <trkpt lat="46.98551" lon="-0.84444">
        <ele>150</ele>
        <time>2023-05-08T20:53:18Z</time>
      </trkpt>
      <trkpt lat="46.98549" lon="-0.84482">
        <ele>150</ele>
        <time>2023-05-08T20:53:23Z</time>
      </trkpt>
      <trkpt lat="46.98543" lon="-0.84529">
        <ele>150</ele>
        <time>2023-05-08T20:53:29Z</time>
      </trkpt>
      <trkpt lat="46.9854" lon="-0.84609">
        <ele>150</ele>
        <time>2023-05-08T20:53:38Z</time>
      </trkpt>
      <trkpt lat="46.98535" lon="-0.8467">
        <ele>149</ele>
        <time>2023-05-08T20:53:46Z</time>
      </trkpt>
      <trkpt lat="46.98519" lon="-0.84786">
        <ele>148</ele>
        <time>2023-05-08T20:54:00Z</time>
      </trkpt>
      <trkpt lat="46.98517" lon="-0.84821">
        <ele>148</ele>
        <time>2023-05-08T20:54:04Z</time>
      </trkpt>
      <trkpt lat="46.98521" lon="-0.849">
        <ele>148</ele>
        <time>2023-05-08T20:54:14Z</time>
      </trkpt>
      <trkpt lat="46.98521" lon="-0.84975">
        <ele>148</ele>
        <time>2023-05-08T20:54:23Z</time>
      </trkpt>
      <trkpt lat="46.98533" lon="-0.85154">
        <ele>151</ele>
        <time>2023-05-08T20:54:45Z</time>
      </trkpt>
      <trkpt lat="46.98549" lon="-0.85224">
        <ele>151</ele>
        <time>2023-05-08T20:54:54Z</time>
      </trkpt>
      <trkpt lat="46.98558" lon="-0.85287">
        <ele>152</ele>
        <time>2023-05-08T20:55:02Z</time>
      </trkpt>
      <trkpt lat="46.98563" lon="-0.8537">
        <ele>154</ele>
        <time>2023-05-08T20:55:12Z</time>
      </trkpt>
      <trkpt lat="46.9856" lon="-0.85438">
        <ele>156</ele>
        <time>2023-05-08T20:55:20Z</time>
      </trkpt>
      <trkpt lat="46.98555" lon="-0.85497">
        <ele>158</ele>
        <time>2023-05-08T20:55:27Z</time>
      </trkpt>
      <trkpt lat="46.98541" lon="-0.85557">
        <ele>160</ele>
        <time>2023-05-08T20:55:35Z</time>
      </trkpt>
      <trkpt lat="46.98539" lon="-0.85584">
        <ele>162</ele>
        <time>2023-05-08T20:55:38Z</time>
      </trkpt>
      <trkpt lat="46.98545" lon="-0.8561">
        <ele>163</ele>
        <time>2023-05-08T20:55:42Z</time>
      </trkpt>
      <trkpt lat="46.98556" lon="-0.85638">
        <ele>165</ele>
        <time>2023-05-08T20:55:46Z</time>
      </trkpt>
      <trkpt lat="46.98625" lon="-0.85756">
        <ele>173</ele>
        <time>2023-05-08T20:56:04Z</time>
      </trkpt>
      <trkpt lat="46.98659" lon="-0.85825">
        <ele>177</ele>
        <time>2023-05-08T20:56:15Z</time>
      </trkpt>
      <trkpt lat="46.9874" lon="-0.86023">
        <ele>179</ele>
        <time>2023-05-08T20:56:43Z</time>
      </trkpt>
      <trkpt lat="46.988" lon="-0.86182">
        <ele>181</ele>
        <time>2023-05-08T20:57:05Z</time>
      </trkpt>
      <trkpt lat="46.98808" lon="-0.86197">
        <ele>181</ele>
        <time>2023-05-08T20:57:07Z</time>
      </trkpt>
      <trkpt lat="46.98839" lon="-0.86239">
        <ele>181</ele>
        <time>2023-05-08T20:57:15Z</time>
      </trkpt>
      <trkpt lat="46.98847" lon="-0.86254">
        <ele>181</ele>
        <time>2023-05-08T20:57:17Z</time>
      </trkpt>
      <trkpt lat="46.98894" lon="-0.86423">
        <ele>182</ele>
        <time>2023-05-08T20:57:39Z</time>
      </trkpt>
      <trkpt lat="46.989" lon="-0.86439">
        <ele>182</ele>
        <time>2023-05-08T20:57:41Z</time>
      </trkpt>
      <trkpt lat="46.98955" lon="-0.86538">
        <ele>182</ele>
        <time>2023-05-08T20:57:57Z</time>
      </trkpt>
      <trkpt lat="46.98971" lon="-0.86575">
        <ele>182</ele>
        <time>2023-05-08T20:58:02Z</time>
      </trkpt>
      <trkpt lat="46.99" lon="-0.86665">
        <ele>180</ele>
        <time>2023-05-08T20:58:14Z</time>
      </trkpt>
      <trkpt lat="46.99006" lon="-0.86692">
        <ele>179</ele>
        <time>2023-05-08T20:58:18Z</time>
      </trkpt>
      <trkpt lat="46.99023" lon="-0.86782">
        <ele>176</ele>
        <time>2023-05-08T20:58:29Z</time>
      </trkpt>
      <trkpt lat="46.99035" lon="-0.86828">
        <ele>175</ele>
        <time>2023-05-08T20:58:35Z</time>
      </trkpt>
      <trkpt lat="46.99042" lon="-0.86856">
        <ele>176</ele>
        <time>2023-05-08T20:58:39Z</time>
      </trkpt>
      <trkpt lat="46.99059" lon="-0.86898">
        <ele>176</ele>
        <time>2023-05-08T20:58:45Z</time>
      </trkpt>
      <trkpt lat="46.99084" lon="-0.86931">
        <ele>176</ele>
        <time>2023-05-08T20:58:51Z</time>
      </trkpt>
      <trkpt lat="46.99154" lon="-0.86997">
        <ele>177</ele>
        <time>2023-05-08T20:59:05Z</time>
      </trkpt>
      <trkpt lat="46.99179" lon="-0.87026">
        <ele>176</ele>
        <time>2023-05-08T20:59:11Z</time>
      </trkpt>
      <trkpt lat="46.993" lon="-0.87234">
        <ele>177</ele>
        <time>2023-05-08T20:59:44Z</time>
      </trkpt>
      <trkpt lat="46.99341" lon="-0.8731">
        <ele>177</ele>
        <time>2023-05-08T20:59:56Z</time>
      </trkpt>
      <trkpt lat="46.99447" lon="-0.87584">
        <ele>176</ele>
        <time>2023-05-08T21:00:34Z</time>
      </trkpt>
      <trkpt lat="46.99577" lon="-0.87932">
        <ele>175</ele>
        <time>2023-05-08T21:01:22Z</time>
      </trkpt>
      <trkpt lat="46.99608" lon="-0.88023">
        <ele>173</ele>
        <time>2023-05-08T21:01:35Z</time>
      </trkpt>
      <trkpt lat="46.99634" lon="-0.88121">
        <ele>168</ele>
        <time>2023-05-08T21:01:47Z</time>
      </trkpt>
      <trkpt lat="46.99663" lon="-0.88186">
        <ele>164</ele>
        <time>2023-05-08T21:01:57Z</time>
      </trkpt>
      <trkpt lat="46.99728" lon="-0.88369">
        <ele>165</ele>
        <time>2023-05-08T21:02:22Z</time>
      </trkpt>
      <trkpt lat="46.99751" lon="-0.88414">
        <ele>167</ele>
        <time>2023-05-08T21:02:29Z</time>
      </trkpt>
      <trkpt lat="46.99756" lon="-0.88429">
        <ele>167</ele>
        <time>2023-05-08T21:02:31Z</time>
      </trkpt>
      <trkpt lat="46.99758" lon="-0.88447">
        <ele>167</ele>
        <time>2023-05-08T21:02:33Z</time>
      </trkpt>
      <trkpt lat="46.99747" lon="-0.88614">
        <ele>164</ele>
        <time>2023-05-08T21:02:53Z</time>
      </trkpt>
      <trkpt lat="46.99737" lon="-0.88694">
        <ele>160</ele>
        <time>2023-05-08T21:03:03Z</time>
      </trkpt>
      <trkpt lat="46.99727" lon="-0.88855">
        <ele>150</ele>
        <time>2023-05-08T21:03:23Z</time>
      </trkpt>
      <trkpt lat="46.99714" lon="-0.88915">
        <ele>146</ele>
        <time>2023-05-08T21:03:30Z</time>
      </trkpt>
      <trkpt lat="46.99694" lon="-0.88977">
        <ele>144</ele>
        <time>2023-05-08T21:03:39Z</time>
      </trkpt>
      <trkpt lat="46.99689" lon="-0.89004">
        <ele>143</ele>
        <time>2023-05-08T21:03:42Z</time>
      </trkpt>
      <trkpt lat="46.99687" lon="-0.891">
        <ele>140</ele>
        <time>2023-05-08T21:03:54Z</time>
      </trkpt>
      <trkpt lat="46.99718" lon="-0.89195">
        <ele>141</ele>
        <time>2023-05-08T21:04:07Z</time>
      </trkpt>
      <trkpt lat="46.99724" lon="-0.89218">
        <ele>141</ele>
        <time>2023-05-08T21:04:10Z</time>
      </trkpt>
      <trkpt lat="46.9973" lon="-0.89219">
        <ele>141</ele>
        <time>2023-05-08T21:04:11Z</time>
      </trkpt>
      <trkpt lat="46.99736" lon="-0.89224">
        <ele>141</ele>
        <time>2023-05-08T21:04:12Z</time>
      </trkpt>
      <trkpt lat="46.99737" lon="-0.89228">
        <ele>141</ele>
        <time>2023-05-08T21:04:12Z</time>
      </trkpt>
      <trkpt lat="46.9974" lon="-0.89227">
        <ele>141</ele>
        <time>2023-05-08T21:04:13Z</time>
      </trkpt>
      <trkpt lat="46.9974" lon="-0.89227">
        <ele>141</ele>
        <time>2023-05-08T21:04:13Z</time>
      </trkpt>
      <trkpt lat="46.99753" lon="-0.89222">
        <ele>142</ele>
        <time>2023-05-08T21:04:15Z</time>
      </trkpt>
      <trkpt lat="46.99796" lon="-0.89189">
        <ele>144</ele>
        <time>2023-05-08T21:04:24Z</time>
      </trkpt>
      <trkpt lat="46.99844" lon="-0.8916">
        <ele>144</ele>
        <time>2023-05-08T21:04:33Z</time>
      </trkpt>
      <trkpt lat="46.99889" lon="-0.8914">
        <ele>145</ele>
        <time>2023-05-08T21:04:42Z</time>
      </trkpt>
      <trkpt lat="46.99946" lon="-0.89123">
        <ele>146</ele>
        <time>2023-05-08T21:04:52Z</time>
      </trkpt>
      <trkpt lat="47.00167" lon="-0.89089">
        <ele>144</ele>
        <time>2023-05-08T21:05:31Z</time>
      </trkpt>
      <trkpt lat="47.00193" lon="-0.89093">
        <ele>144</ele>
        <time>2023-05-08T21:05:36Z</time>
      </trkpt>
      <trkpt lat="47.00206" lon="-0.89104">
        <ele>144</ele>
        <time>2023-05-08T21:05:39Z</time>
      </trkpt>
      <trkpt lat="47.00215" lon="-0.89087">
        <ele>143</ele>
        <time>2023-05-08T21:05:41Z</time>
      </trkpt>
      <trkpt lat="47.0023" lon="-0.8908">
        <ele>143</ele>
        <time>2023-05-08T21:05:44Z</time>
      </trkpt>
      <trkpt lat="47.00243" lon="-0.89084">
        <ele>143</ele>
        <time>2023-05-08T21:05:47Z</time>
      </trkpt>
      <trkpt lat="47.00253" lon="-0.89097">
        <ele>143</ele>
        <time>2023-05-08T21:05:49Z</time>
      </trkpt>
      <trkpt lat="47.00257" lon="-0.8912">
        <ele>143</ele>
        <time>2023-05-08T21:05:52Z</time>
      </trkpt>
      <trkpt lat="47.00255" lon="-0.89134">
        <ele>143</ele>
        <time>2023-05-08T21:05:54Z</time>
      </trkpt>
      <trkpt lat="47.0025" lon="-0.89145">
        <ele>144</ele>
        <time>2023-05-08T21:05:55Z</time>
      </trkpt>
      <trkpt lat="47.00242" lon="-0.89154">
        <ele>144</ele>
        <time>2023-05-08T21:05:57Z</time>
      </trkpt>
      <trkpt lat="47.00234" lon="-0.89157">
        <ele>144</ele>
        <time>2023-05-08T21:05:58Z</time>
      </trkpt>
      <trkpt lat="47.00225" lon="-0.89156">
        <ele>144</ele>
        <time>2023-05-08T21:06:00Z</time>
      </trkpt>
      <trkpt lat="47.00218" lon="-0.89153">
        <ele>145</ele>
        <time>2023-05-08T21:06:01Z</time>
      </trkpt>
      <trkpt lat="47.00209" lon="-0.89141">
        <ele>145</ele>
        <time>2023-05-08T21:06:04Z</time>
      </trkpt>
      <trkpt lat="47.00167" lon="-0.89183">
        <ele>146</ele>
        <time>2023-05-08T21:06:13Z</time>
      </trkpt>
      <trkpt lat="47.00168" lon="-0.89191">
        <ele>146</ele>
        <time>2023-05-08T21:06:14Z</time>
      </trkpt>
      <trkpt lat="47.00165" lon="-0.89199">
        <ele>146</ele>
        <time>2023-05-08T21:06:15Z</time>
      </trkpt>
      <trkpt lat="47.00163" lon="-0.89201">
        <ele>146</ele>
        <time>2023-05-08T21:06:15Z</time>
      </trkpt>
      <trkpt lat="47.00169" lon="-0.8922">
        <ele>146</ele>
        <time>2023-05-08T21:06:18Z</time>
      </trkpt>
      <trkpt lat="47.00189" lon="-0.89292">
        <ele>145</ele>
        <time>2023-05-08T21:06:27Z</time>
      </trkpt>
      <trkpt lat="47.00197" lon="-0.89337">
        <ele>145</ele>
        <time>2023-05-08T21:06:33Z</time>
      </trkpt>
      <trkpt lat="47.00208" lon="-0.8942">
        <ele>145</ele>
        <time>2023-05-08T21:06:43Z</time>
      </trkpt>
      <trkpt lat="47.00213" lon="-0.89425">
        <ele>144</ele>
        <time>2023-05-08T21:06:44Z</time>
      </trkpt>
      <trkpt lat="47.00209" lon="-0.89432">
        <ele>144</ele>
        <time>2023-05-08T21:06:45Z</time>
      </trkpt>
      <trkpt lat="47.0021" lon="-0.89443">
        <ele>144</ele>
        <time>2023-05-08T21:06:46Z</time>
      </trkpt>
      <trkpt lat="47.00226" lon="-0.89529">
        <ele>144</ele>
        <time>2023-05-08T21:06:57Z</time>
      </trkpt>
      <trkpt lat="47.0023" lon="-0.89579">
        <ele>144</ele>
        <time>2023-05-08T21:07:03Z</time>
      </trkpt>
      <trkpt lat="47.00234" lon="-0.8961">
        <ele>143</ele>
        <time>2023-05-08T21:07:07Z</time>
      </trkpt>
      <trkpt lat="47.00256" lon="-0.89705">
        <ele>140</ele>
        <time>2023-05-08T21:07:19Z</time>
      </trkpt>
      <trkpt lat="47.00272" lon="-0.89751">
        <ele>138</ele>
        <time>2023-05-08T21:07:26Z</time>
      </trkpt>
      <trkpt lat="47.0029" lon="-0.89794">
        <ele>136</ele>
        <time>2023-05-08T21:07:32Z</time>
      </trkpt>
      <trkpt lat="47.003" lon="-0.89837">
        <ele>135</ele>
        <time>2023-05-08T21:07:37Z</time>
      </trkpt>
      <trkpt lat="47.00314" lon="-0.8988">
        <ele>135</ele>
        <time>2023-05-08T21:07:43Z</time>
      </trkpt>
      <trkpt lat="47.00425" lon="-0.90149">
        <ele>129</ele>
        <time>2023-05-08T21:08:21Z</time>
      </trkpt>
      <trkpt lat="47.00448" lon="-0.9019">
        <ele>130</ele>
        <time>2023-05-08T21:08:28Z</time>
      </trkpt>
      <trkpt lat="47.00475" lon="-0.90233">
        <ele>130</ele>
        <time>2023-05-08T21:08:35Z</time>
      </trkpt>
      <trkpt lat="47.00537" lon="-0.90327">
        <ele>127</ele>
        <time>2023-05-08T21:08:51Z</time>
      </trkpt>
      <trkpt lat="47.00544" lon="-0.90338">
        <ele>126</ele>
        <time>2023-05-08T21:08:52Z</time>
      </trkpt>
      <trkpt lat="47.00553" lon="-0.90361">
        <ele>126</ele>
        <time>2023-05-08T21:08:56Z</time>
      </trkpt>
      <trkpt lat="47.00559" lon="-0.9038">
        <ele>126</ele>
        <time>2023-05-08T21:08:58Z</time>
      </trkpt>
      <trkpt lat="47.00563" lon="-0.9041">
        <ele>126</ele>
        <time>2023-05-08T21:09:02Z</time>
      </trkpt>
      <trkpt lat="47.00562" lon="-0.90436">
        <ele>126</ele>
        <time>2023-05-08T21:09:05Z</time>
      </trkpt>
      <trkpt lat="47.00554" lon="-0.90501">
        <ele>127</ele>
        <time>2023-05-08T21:09:13Z</time>
      </trkpt>
      <trkpt lat="47.00552" lon="-0.90527">
        <ele>127</ele>
        <time>2023-05-08T21:09:16Z</time>
      </trkpt>
      <trkpt lat="47.00553" lon="-0.90553">
        <ele>127</ele>
        <time>2023-05-08T21:09:19Z</time>
      </trkpt>
      <trkpt lat="47.00562" lon="-0.9059">
        <ele>126</ele>
        <time>2023-05-08T21:09:24Z</time>
      </trkpt>
      <trkpt lat="47.00566" lon="-0.90601">
        <ele>126</ele>
        <time>2023-05-08T21:09:26Z</time>
      </trkpt>
      <trkpt lat="47.00571" lon="-0.90612">
        <ele>126</ele>
        <time>2023-05-08T21:09:27Z</time>
      </trkpt>
      <trkpt lat="47.006" lon="-0.90657">
        <ele>125</ele>
        <time>2023-05-08T21:09:35Z</time>
      </trkpt>
      <trkpt lat="47.00616" lon="-0.90693">
        <ele>124</ele>
        <time>2023-05-08T21:09:40Z</time>
      </trkpt>
      <trkpt lat="47.0063" lon="-0.90737">
        <ele>124</ele>
        <time>2023-05-08T21:09:46Z</time>
      </trkpt>
      <trkpt lat="47.00645" lon="-0.90802">
        <ele>124</ele>
        <time>2023-05-08T21:09:54Z</time>
      </trkpt>
      <trkpt lat="47.00659" lon="-0.90853">
        <ele>124</ele>
        <time>2023-05-08T21:10:01Z</time>
      </trkpt>
      <trkpt lat="47.00687" lon="-0.90944">
        <ele>123</ele>
        <time>2023-05-08T21:10:13Z</time>
      </trkpt>
      <trkpt lat="47.00702" lon="-0.90983">
        <ele>121</ele>
        <time>2023-05-08T21:10:18Z</time>
      </trkpt>
      <trkpt lat="47.00713" lon="-0.91038">
        <ele>120</ele>
        <time>2023-05-08T21:10:25Z</time>
      </trkpt>
      <trkpt lat="47.00727" lon="-0.91089">
        <ele>119</ele>
        <time>2023-05-08T21:10:32Z</time>
      </trkpt>
      <trkpt lat="47.00746" lon="-0.91143">
        <ele>120</ele>
        <time>2023-05-08T21:10:39Z</time>
      </trkpt>
      <trkpt lat="47.00754" lon="-0.91177">
        <ele>120</ele>
        <time>2023-05-08T21:10:44Z</time>
      </trkpt>
      <trkpt lat="47.0078" lon="-0.91374">
        <ele>116</ele>
        <time>2023-05-08T21:11:08Z</time>
      </trkpt>
      <trkpt lat="47.00779" lon="-0.91434">
        <ele>115</ele>
        <time>2023-05-08T21:11:15Z</time>
      </trkpt>
      <trkpt lat="47.00781" lon="-0.91469">
        <ele>115</ele>
        <time>2023-05-08T21:11:20Z</time>
      </trkpt>
      <trkpt lat="47.00788" lon="-0.91504">
        <ele>114</ele>
        <time>2023-05-08T21:11:24Z</time>
      </trkpt>
      <trkpt lat="47.00814" lon="-0.91583">
        <ele>112</ele>
        <time>2023-05-08T21:11:35Z</time>
      </trkpt>
      <trkpt lat="47.00836" lon="-0.91643">
        <ele>111</ele>
        <time>2023-05-08T21:11:43Z</time>
      </trkpt>
      <trkpt lat="47.00871" lon="-0.91712">
        <ele>111</ele>
        <time>2023-05-08T21:11:54Z</time>
      </trkpt>
      <trkpt lat="47.00898" lon="-0.91759">
        <ele>111</ele>
        <time>2023-05-08T21:12:01Z</time>
      </trkpt>
      <trkpt lat="47.00937" lon="-0.91835">
        <ele>111</ele>
        <time>2023-05-08T21:12:13Z</time>
      </trkpt>
      <trkpt lat="47.00956" lon="-0.91888">
        <ele>112</ele>
        <time>2023-05-08T21:12:20Z</time>
      </trkpt>
      <trkpt lat="47.00979" lon="-0.91959">
        <ele>113</ele>
        <time>2023-05-08T21:12:29Z</time>
      </trkpt>
      <trkpt lat="47.00986" lon="-0.9199">
        <ele>113</ele>
        <time>2023-05-08T21:12:33Z</time>
      </trkpt>
      <trkpt lat="47.00991" lon="-0.92036">
        <ele>112</ele>
        <time>2023-05-08T21:12:39Z</time>
      </trkpt>
      <trkpt lat="47.00998" lon="-0.92148">
        <ele>111</ele>
        <time>2023-05-08T21:12:53Z</time>
      </trkpt>
      <trkpt lat="47.01007" lon="-0.92217">
        <ele>111</ele>
        <time>2023-05-08T21:13:01Z</time>
      </trkpt>
      <trkpt lat="47.01019" lon="-0.92261">
        <ele>110</ele>
        <time>2023-05-08T21:13:07Z</time>
      </trkpt>
      <trkpt lat="47.01034" lon="-0.92304">
        <ele>110</ele>
        <time>2023-05-08T21:13:13Z</time>
      </trkpt>
      <trkpt lat="47.01044" lon="-0.92325">
        <ele>110</ele>
        <time>2023-05-08T21:13:16Z</time>
      </trkpt>
      <trkpt lat="47.01078" lon="-0.92357">
        <ele>110</ele>
        <time>2023-05-08T21:13:23Z</time>
      </trkpt>
      <trkpt lat="47.01116" lon="-0.92391">
        <ele>111</ele>
        <time>2023-05-08T21:13:31Z</time>
      </trkpt>
      <trkpt lat="47.01233" lon="-0.92507">
        <ele>108</ele>
        <time>2023-05-08T21:13:56Z</time>
      </trkpt>
      <trkpt lat="47.01265" lon="-0.92525">
        <ele>108</ele>
        <time>2023-05-08T21:14:02Z</time>
      </trkpt>
      <trkpt lat="47.01287" lon="-0.92532">
        <ele>108</ele>
        <time>2023-05-08T21:14:06Z</time>
      </trkpt>
      <trkpt lat="47.01352" lon="-0.92535">
        <ele>109</ele>
        <time>2023-05-08T21:14:18Z</time>
      </trkpt>
      <trkpt lat="47.01367" lon="-0.9254">
        <ele>109</ele>
        <time>2023-05-08T21:14:20Z</time>
      </trkpt>
      <trkpt lat="47.01411" lon="-0.9257">
        <ele>107</ele>
        <time>2023-05-08T21:14:29Z</time>
      </trkpt>
      <trkpt lat="47.01462" lon="-0.92613">
        <ele>106</ele>
        <time>2023-05-08T21:14:40Z</time>
      </trkpt>
      <trkpt lat="47.01485" lon="-0.92624">
        <ele>106</ele>
        <time>2023-05-08T21:14:44Z</time>
      </trkpt>
      <trkpt lat="47.01491" lon="-0.92625">
        <ele>106</ele>
        <time>2023-05-08T21:14:45Z</time>
      </trkpt>
      <trkpt lat="47.01496" lon="-0.92623">
        <ele>106</ele>
        <time>2023-05-08T21:14:46Z</time>
      </trkpt>
      <trkpt lat="47.01504" lon="-0.92625">
        <ele>106</ele>
        <time>2023-05-08T21:14:47Z</time>
      </trkpt>
      <trkpt lat="47.0151" lon="-0.92636">
        <ele>106</ele>
        <time>2023-05-08T21:14:49Z</time>
      </trkpt>
      <trkpt lat="47.01511" lon="-0.92645">
        <ele>105</ele>
        <time>2023-05-08T21:14:50Z</time>
      </trkpt>
      <trkpt lat="47.01526" lon="-0.92671">
        <ele>105</ele>
        <time>2023-05-08T21:14:54Z</time>
      </trkpt>
      <trkpt lat="47.01592" lon="-0.92738">
        <ele>105</ele>
        <time>2023-05-08T21:15:09Z</time>
      </trkpt>
      <trkpt lat="47.01611" lon="-0.92753">
        <ele>104</ele>
        <time>2023-05-08T21:15:12Z</time>
      </trkpt>
      <trkpt lat="47.01621" lon="-0.92757">
        <ele>104</ele>
        <time>2023-05-08T21:15:14Z</time>
      </trkpt>
      <trkpt lat="47.01632" lon="-0.92758">
        <ele>104</ele>
        <time>2023-05-08T21:15:16Z</time>
      </trkpt>
      <trkpt lat="47.01638" lon="-0.92755">
        <ele>104</ele>
        <time>2023-05-08T21:15:17Z</time>
      </trkpt>
      <trkpt lat="47.01647" lon="-0.92755">
        <ele>104</ele>
        <time>2023-05-08T21:15:19Z</time>
      </trkpt>
      <trkpt lat="47.01652" lon="-0.92758">
        <ele>103</ele>
        <time>2023-05-08T21:15:20Z</time>
      </trkpt>
      <trkpt lat="47.01659" lon="-0.92769">
        <ele>104</ele>
        <time>2023-05-08T21:15:22Z</time>
      </trkpt>
      <trkpt lat="47.01661" lon="-0.92779">
        <ele>104</ele>
        <time>2023-05-08T21:15:23Z</time>
      </trkpt>
      <trkpt lat="47.01661" lon="-0.92791">
        <ele>104</ele>
        <time>2023-05-08T21:15:24Z</time>
      </trkpt>
      <trkpt lat="47.01669" lon="-0.92809">
        <ele>104</ele>
        <time>2023-05-08T21:15:27Z</time>
      </trkpt>
      <trkpt lat="47.01684" lon="-0.9283">
        <ele>104</ele>
        <time>2023-05-08T21:15:31Z</time>
      </trkpt>
      <trkpt lat="47.01721" lon="-0.92872">
        <ele>103</ele>
        <time>2023-05-08T21:15:39Z</time>
      </trkpt>
      <trkpt lat="47.01776" lon="-0.92943">
        <ele>101</ele>
        <time>2023-05-08T21:15:52Z</time>
      </trkpt>
      <trkpt lat="47.01915" lon="-0.93127">
        <ele>100</ele>
        <time>2023-05-08T21:16:25Z</time>
      </trkpt>
      <trkpt lat="47.01953" lon="-0.93182">
        <ele>99</ele>
        <time>2023-05-08T21:16:35Z</time>
      </trkpt>
      <trkpt lat="47.02004" lon="-0.9326">
        <ele>99</ele>
        <time>2023-05-08T21:16:48Z</time>
      </trkpt>
      <trkpt lat="47.02073" lon="-0.93391">
        <ele>98</ele>
        <time>2023-05-08T21:17:08Z</time>
      </trkpt>
      <trkpt lat="47.0214" lon="-0.93511">
        <ele>95</ele>
        <time>2023-05-08T21:17:27Z</time>
      </trkpt>
      <trkpt lat="47.02201" lon="-0.93636">
        <ele>89</ele>
        <time>2023-05-08T21:17:46Z</time>
      </trkpt>
      <trkpt lat="47.02219" lon="-0.93682">
        <ele>88</ele>
        <time>2023-05-08T21:17:52Z</time>
      </trkpt>
      <trkpt lat="47.02225" lon="-0.93757">
        <ele>86</ele>
        <time>2023-05-08T21:18:01Z</time>
      </trkpt>
      <trkpt lat="47.02235" lon="-0.93798">
        <ele>87</ele>
        <time>2023-05-08T21:18:06Z</time>
      </trkpt>
      <trkpt lat="47.02246" lon="-0.93825">
        <ele>88</ele>
        <time>2023-05-08T21:18:10Z</time>
      </trkpt>
      <trkpt lat="47.02276" lon="-0.93863">
        <ele>89</ele>
        <time>2023-05-08T21:18:17Z</time>
      </trkpt>
      <trkpt lat="47.02496" lon="-0.94114">
        <ele>98</ele>
        <time>2023-05-08T21:19:07Z</time>
      </trkpt>
      <trkpt lat="47.02543" lon="-0.94199">
        <ele>97</ele>
        <time>2023-05-08T21:19:20Z</time>
      </trkpt>
      <trkpt lat="47.02561" lon="-0.94236">
        <ele>98</ele>
        <time>2023-05-08T21:19:26Z</time>
      </trkpt>
      <trkpt lat="47.02578" lon="-0.94265">
        <ele>98</ele>
        <time>2023-05-08T21:19:30Z</time>
      </trkpt>
      <trkpt lat="47.02602" lon="-0.94289">
        <ele>98</ele>
        <time>2023-05-08T21:19:35Z</time>
      </trkpt>
      <trkpt lat="47.02657" lon="-0.94336">
        <ele>97</ele>
        <time>2023-05-08T21:19:47Z</time>
      </trkpt>
      <trkpt lat="47.02657" lon="-0.94336">
        <ele>97</ele>
        <time>2023-05-08T21:19:47Z</time>
      </trkpt>
      <trkpt lat="47.02672" lon="-0.94346">
        <ele>97</ele>
        <time>2023-05-08T21:19:50Z</time>
      </trkpt>
      <trkpt lat="47.02678" lon="-0.94342">
        <ele>97</ele>
        <time>2023-05-08T21:19:51Z</time>
      </trkpt>
      <trkpt lat="47.02679" lon="-0.94343">
        <ele>97</ele>
        <time>2023-05-08T21:19:51Z</time>
      </trkpt>
      <trkpt lat="47.02681" lon="-0.94352">
        <ele>97</ele>
        <time>2023-05-08T21:19:52Z</time>
      </trkpt>
      <trkpt lat="47.02674" lon="-0.94355">
        <ele>97</ele>
        <time>2023-05-08T21:19:54Z</time>
      </trkpt>
      <trkpt lat="47.02673" lon="-0.94354">
        <ele>97</ele>
        <time>2023-05-08T21:19:54Z</time>
      </trkpt>
      <trkpt lat="47.02668" lon="-0.94361">
        <ele>98</ele>
        <time>2023-05-08T21:19:55Z</time>
      </trkpt>
      <trkpt lat="47.0264" lon="-0.94386">
        <ele>99</ele>
        <time>2023-05-08T21:20:01Z</time>
      </trkpt>
      <trkpt lat="47.02625" lon="-0.94396">
        <ele>100</ele>
        <time>2023-05-08T21:20:04Z</time>
      </trkpt>
      <trkpt lat="47.02567" lon="-0.94413">
        <ele>102</ele>
        <time>2023-05-08T21:20:14Z</time>
      </trkpt>
      <trkpt lat="47.02528" lon="-0.94434">
        <ele>102</ele>
        <time>2023-05-08T21:20:22Z</time>
      </trkpt>
      <trkpt lat="47.02498" lon="-0.94454">
        <ele>102</ele>
        <time>2023-05-08T21:20:28Z</time>
      </trkpt>
      <trkpt lat="47.02491" lon="-0.94464">
        <ele>102</ele>
        <time>2023-05-08T21:20:29Z</time>
      </trkpt>
      <trkpt lat="47.02483" lon="-0.94468">
        <ele>102</ele>
        <time>2023-05-08T21:20:31Z</time>
      </trkpt>
      <trkpt lat="47.02483" lon="-0.94468">
        <ele>102</ele>
        <time>2023-05-08T21:20:31Z</time>
      </trkpt>
      <trkpt lat="47.02491" lon="-0.94464">
        <ele>102</ele>
        <time>2023-05-08T21:20:32Z</time>
      </trkpt>
      <trkpt lat="47.02497" lon="-0.94476">
        <ele>102</ele>
        <time>2023-05-08T21:20:34Z</time>
      </trkpt>
      <trkpt lat="47.02539" lon="-0.94588">
        <ele>103</ele>
        <time>2023-05-08T21:20:50Z</time>
      </trkpt>
      <trkpt lat="47.02601" lon="-0.94773">
        <ele>99</ele>
        <time>2023-05-08T21:21:15Z</time>
      </trkpt>
      <trkpt lat="47.02605" lon="-0.94836">
        <ele>97</ele>
        <time>2023-05-08T21:21:22Z</time>
      </trkpt>
      <trkpt lat="47.02606" lon="-0.94912">
        <ele>96</ele>
        <time>2023-05-08T21:21:32Z</time>
      </trkpt>
      <trkpt lat="47.02682" lon="-0.95809">
        <ele>104</ele>
        <time>2023-05-08T21:23:21Z</time>
      </trkpt>
      <trkpt lat="47.02682" lon="-0.95809">
        <ele>104</ele>
        <time>2023-05-08T21:23:21Z</time>
      </trkpt>
      <trkpt lat="47.02686" lon="-0.95872">
        <ele>104</ele>
        <time>2023-05-08T21:23:29Z</time>
      </trkpt>
      <trkpt lat="47.02682" lon="-0.95897">
        <ele>104</ele>
        <time>2023-05-08T21:23:32Z</time>
      </trkpt>
      <trkpt lat="47.02547" lon="-0.96322">
        <ele>95</ele>
        <time>2023-05-08T21:24:29Z</time>
      </trkpt>
      <trkpt lat="47.02539" lon="-0.96356">
        <ele>94</ele>
        <time>2023-05-08T21:24:33Z</time>
      </trkpt>
      <trkpt lat="47.02515" lon="-0.96626">
        <ele>89</ele>
        <time>2023-05-08T21:25:06Z</time>
      </trkpt>
      <trkpt lat="47.0248" lon="-0.97101">
        <ele>96</ele>
        <time>2023-05-08T21:26:04Z</time>
      </trkpt>
      <trkpt lat="47.02476" lon="-0.97143">
        <ele>96</ele>
        <time>2023-05-08T21:26:09Z</time>
      </trkpt>
      <trkpt lat="47.0247" lon="-0.9717">
        <ele>96</ele>
        <time>2023-05-08T21:26:13Z</time>
      </trkpt>
      <trkpt lat="47.02463" lon="-0.97192">
        <ele>96</ele>
        <time>2023-05-08T21:26:16Z</time>
      </trkpt>
      <trkpt lat="47.02368" lon="-0.97446">
        <ele>103</ele>
        <time>2023-05-08T21:26:51Z</time>
      </trkpt>
      <trkpt lat="47.02356" lon="-0.97476">
        <ele>105</ele>
        <time>2023-05-08T21:26:55Z</time>
      </trkpt>
      <trkpt lat="47.02323" lon="-0.97547">
        <ele>107</ele>
        <time>2023-05-08T21:27:05Z</time>
      </trkpt>
      <trkpt lat="47.02323" lon="-0.97547">
        <ele>107</ele>
        <time>2023-05-08T21:27:05Z</time>
      </trkpt>
      <trkpt lat="47.02311" lon="-0.97572">
        <ele>108</ele>
        <time>2023-05-08T21:27:09Z</time>
      </trkpt>
      <trkpt lat="47.02459" lon="-0.97657">
        <ele>102</ele>
        <time>2023-05-08T21:27:37Z</time>
      </trkpt>
      <trkpt lat="47.02485" lon="-0.97666">
        <ele>102</ele>
        <time>2023-05-08T21:27:42Z</time>
      </trkpt>
      <trkpt lat="47.02554" lon="-0.97682">
        <ele>100</ele>
        <time>2023-05-08T21:27:55Z</time>
      </trkpt>
      <trkpt lat="47.02671" lon="-0.97719">
        <ele>101</ele>
        <time>2023-05-08T21:28:16Z</time>
      </trkpt>
      <trkpt lat="47.02695" lon="-0.9773">
        <ele>102</ele>
        <time>2023-05-08T21:28:20Z</time>
      </trkpt>
      <trkpt lat="47.02714" lon="-0.97744">
        <ele>103</ele>
        <time>2023-05-08T21:28:24Z</time>
      </trkpt>
      <trkpt lat="47.02789" lon="-0.97817">
        <ele>106</ele>
        <time>2023-05-08T21:28:40Z</time>
      </trkpt>
      <trkpt lat="47.02832" lon="-0.97866">
        <ele>107</ele>
        <time>2023-05-08T21:28:50Z</time>
      </trkpt>
      <trkpt lat="47.02957" lon="-0.98074">
        <ele>108</ele>
        <time>2023-05-08T21:29:24Z</time>
      </trkpt>
      <trkpt lat="47.02983" lon="-0.98114">
        <ele>107</ele>
        <time>2023-05-08T21:29:30Z</time>
      </trkpt>
      <trkpt lat="47.03014" lon="-0.98147">
        <ele>107</ele>
        <time>2023-05-08T21:29:37Z</time>
      </trkpt>
      <trkpt lat="47.03064" lon="-0.9819">
        <ele>108</ele>
        <time>2023-05-08T21:29:47Z</time>
      </trkpt>
      <trkpt lat="47.03169" lon="-0.98301">
        <ele>110</ele>
        <time>2023-05-08T21:30:10Z</time>
      </trkpt>
      <trkpt lat="47.03193" lon="-0.98323">
        <ele>110</ele>
        <time>2023-05-08T21:30:15Z</time>
      </trkpt>
      <trkpt lat="47.0321" lon="-0.98331">
        <ele>109</ele>
        <time>2023-05-08T21:30:19Z</time>
      </trkpt>
      <trkpt lat="47.03222" lon="-0.98334">
        <ele>109</ele>
        <time>2023-05-08T21:30:21Z</time>
      </trkpt>
      <trkpt lat="47.03247" lon="-0.98335">
        <ele>107</ele>
        <time>2023-05-08T21:30:25Z</time>
      </trkpt>
      <trkpt lat="47.03289" lon="-0.98329">
        <ele>104</ele>
        <time>2023-05-08T21:30:33Z</time>
      </trkpt>
      <trkpt lat="47.0331" lon="-0.98333">
        <ele>103</ele>
        <time>2023-05-08T21:30:36Z</time>
      </trkpt>
      <trkpt lat="47.03319" lon="-0.98339">
        <ele>102</ele>
        <time>2023-05-08T21:30:38Z</time>
      </trkpt>
      <trkpt lat="47.03373" lon="-0.98396">
        <ele>102</ele>
        <time>2023-05-08T21:30:50Z</time>
      </trkpt>
      <trkpt lat="47.0342" lon="-0.98447">
        <ele>99</ele>
        <time>2023-05-08T21:31:00Z</time>
      </trkpt>
      <trkpt lat="47.03552" lon="-0.98516">
        <ele>93</ele>
        <time>2023-05-08T21:31:25Z</time>
      </trkpt>
      <trkpt lat="47.03577" lon="-0.98551">
        <ele>92</ele>
        <time>2023-05-08T21:31:32Z</time>
      </trkpt>
      <trkpt lat="47.03621" lon="-0.98626">
        <ele>93</ele>
        <time>2023-05-08T21:31:44Z</time>
      </trkpt>
      <trkpt lat="47.0375" lon="-0.98687">
        <ele>92</ele>
        <time>2023-05-08T21:32:08Z</time>
      </trkpt>
      <trkpt lat="47.03765" lon="-0.9869">
        <ele>92</ele>
        <time>2023-05-08T21:32:10Z</time>
      </trkpt>
      <trkpt lat="47.03811" lon="-0.98688">
        <ele>90</ele>
        <time>2023-05-08T21:32:19Z</time>
      </trkpt>
      <trkpt lat="47.039" lon="-0.98691">
        <ele>89</ele>
        <time>2023-05-08T21:32:34Z</time>
      </trkpt>
      <trkpt lat="47.03963" lon="-0.98718">
        <ele>92</ele>
        <time>2023-05-08T21:32:46Z</time>
      </trkpt>
      <trkpt lat="47.0406" lon="-0.98773">
        <ele>97</ele>
        <time>2023-05-08T21:33:05Z</time>
      </trkpt>
      <trkpt lat="47.04128" lon="-0.98848">
        <ele>99</ele>
        <time>2023-05-08T21:33:20Z</time>
      </trkpt>
      <trkpt lat="47.04138" lon="-0.9884">
        <ele>99</ele>
        <time>2023-05-08T21:33:22Z</time>
      </trkpt>
      <trkpt lat="47.04189" lon="-0.98781">
        <ele>96</ele>
        <time>2023-05-08T21:33:33Z</time>
      </trkpt>
      <trkpt lat="47.04277" lon="-0.98661">
        <ele>94</ele>
        <time>2023-05-08T21:33:55Z</time>
      </trkpt>
      <trkpt lat="47.0431" lon="-0.98621">
        <ele>94</ele>
        <time>2023-05-08T21:34:02Z</time>
      </trkpt>
      <trkpt lat="47.04381" lon="-0.98543">
        <ele>91</ele>
        <time>2023-05-08T21:34:18Z</time>
      </trkpt>
      <trkpt lat="47.04442" lon="-0.98486">
        <ele>88</ele>
        <time>2023-05-08T21:34:31Z</time>
      </trkpt>
      <trkpt lat="47.04503" lon="-0.98437">
        <ele>88</ele>
        <time>2023-05-08T21:34:43Z</time>
      </trkpt>
      <trkpt lat="47.04503" lon="-0.98436">
        <ele>88</ele>
        <time>2023-05-08T21:34:43Z</time>
      </trkpt>
      <trkpt lat="47.04503" lon="-0.98436">
        <ele>88</ele>
        <time>2023-05-08T21:34:43Z</time>
      </trkpt>
      <trkpt lat="47.0446" lon="-0.98338">
        <ele>85</ele>
        <time>2023-05-08T21:34:58Z</time>
      </trkpt>
      <trkpt lat="47.04367" lon="-0.98082">
        <ele>84</ele>
        <time>2023-05-08T21:35:33Z</time>
      </trkpt>
      <trkpt lat="47.04351" lon="-0.98042">
        <ele>84</ele>
        <time>2023-05-08T21:35:38Z</time>
      </trkpt>
      <trkpt lat="47.04284" lon="-0.97903">
        <ele>82</ele>
        <time>2023-05-08T21:35:59Z</time>
      </trkpt>
      <trkpt lat="47.04255" lon="-0.97804">
        <ele>81</ele>
        <time>2023-05-08T21:36:12Z</time>
      </trkpt>
      <trkpt lat="47.04245" lon="-0.97766">
        <ele>81</ele>
        <time>2023-05-08T21:36:17Z</time>
      </trkpt>
      <trkpt lat="47.04236" lon="-0.9771">
        <ele>80</ele>
        <time>2023-05-08T21:36:24Z</time>
      </trkpt>
      <trkpt lat="47.04235" lon="-0.97686">
        <ele>79</ele>
        <time>2023-05-08T21:36:27Z</time>
      </trkpt>
      <trkpt lat="47.04243" lon="-0.97599">
        <ele>78</ele>
        <time>2023-05-08T21:36:38Z</time>
      </trkpt>
      <trkpt lat="47.04241" lon="-0.97575">
        <ele>78</ele>
        <time>2023-05-08T21:36:40Z</time>
      </trkpt>
      <trkpt lat="47.04238" lon="-0.97564">
        <ele>78</ele>
        <time>2023-05-08T21:36:42Z</time>
      </trkpt>
      <trkpt lat="47.04219" lon="-0.97533">
        <ele>77</ele>
        <time>2023-05-08T21:36:47Z</time>
      </trkpt>
      <trkpt lat="47.04159" lon="-0.97454">
        <ele>79</ele>
        <time>2023-05-08T21:37:01Z</time>
      </trkpt>
      <trkpt lat="47.0412" lon="-0.97394">
        <ele>81</ele>
        <time>2023-05-08T21:37:11Z</time>
      </trkpt>
      <trkpt lat="47.04096" lon="-0.97348">
        <ele>81</ele>
        <time>2023-05-08T21:37:18Z</time>
      </trkpt>
      <trkpt lat="47.04043" lon="-0.97231">
        <ele>79</ele>
        <time>2023-05-08T21:37:35Z</time>
      </trkpt>
      <trkpt lat="47.04013" lon="-0.97169">
        <ele>79</ele>
        <time>2023-05-08T21:37:45Z</time>
      </trkpt>
      <trkpt lat="47.03963" lon="-0.97082">
        <ele>79</ele>
        <time>2023-05-08T21:37:58Z</time>
      </trkpt>
      <trkpt lat="47.03929" lon="-0.97005">
        <ele>82</ele>
        <time>2023-05-08T21:38:10Z</time>
      </trkpt>
      <trkpt lat="47.03918" lon="-0.96985">
        <ele>83</ele>
        <time>2023-05-08T21:38:13Z</time>
      </trkpt>
      <trkpt lat="47.03891" lon="-0.96946">
        <ele>85</ele>
        <time>2023-05-08T21:38:19Z</time>
      </trkpt>
      <trkpt lat="47.03883" lon="-0.96931">
        <ele>85</ele>
        <time>2023-05-08T21:38:22Z</time>
      </trkpt>
      <trkpt lat="47.03872" lon="-0.96908">
        <ele>85</ele>
        <time>2023-05-08T21:38:25Z</time>
      </trkpt>
      <trkpt lat="47.0386" lon="-0.96856">
        <ele>86</ele>
        <time>2023-05-08T21:38:32Z</time>
      </trkpt>
      <trkpt lat="47.03848" lon="-0.96832">
        <ele>87</ele>
        <time>2023-05-08T21:38:35Z</time>
      </trkpt>
      <trkpt lat="47.0377" lon="-0.96739">
        <ele>90</ele>
        <time>2023-05-08T21:38:53Z</time>
      </trkpt>
      <trkpt lat="47.03647" lon="-0.96553">
        <ele>94</ele>
        <time>2023-05-08T21:39:25Z</time>
      </trkpt>
      <trkpt lat="47.03623" lon="-0.9651">
        <ele>94</ele>
        <time>2023-05-08T21:39:31Z</time>
      </trkpt>
      <trkpt lat="47.03603" lon="-0.96453">
        <ele>95</ele>
        <time>2023-05-08T21:39:39Z</time>
      </trkpt>
      <trkpt lat="47.03459" lon="-0.9612">
        <ele>96</ele>
        <time>2023-05-08T21:40:27Z</time>
      </trkpt>
      <trkpt lat="47.03432" lon="-0.96065">
        <ele>96</ele>
        <time>2023-05-08T21:40:35Z</time>
      </trkpt>
      <trkpt lat="47.03335" lon="-0.95928">
        <ele>96</ele>
        <time>2023-05-08T21:40:59Z</time>
      </trkpt>
      <trkpt lat="47.03241" lon="-0.95799">
        <ele>100</ele>
        <time>2023-05-08T21:41:22Z</time>
      </trkpt>
      <trkpt lat="47.03219" lon="-0.95778">
        <ele>100</ele>
        <time>2023-05-08T21:41:27Z</time>
      </trkpt>
      <trkpt lat="47.03197" lon="-0.95763">
        <ele>101</ele>
        <time>2023-05-08T21:41:31Z</time>
      </trkpt>
      <trkpt lat="47.03146" lon="-0.95737">
        <ele>101</ele>
        <time>2023-05-08T21:41:41Z</time>
      </trkpt>
      <trkpt lat="47.03124" lon="-0.9572">
        <ele>101</ele>
        <time>2023-05-08T21:41:45Z</time>
      </trkpt>
      <trkpt lat="47.03103" lon="-0.95697">
        <ele>101</ele>
        <time>2023-05-08T21:41:50Z</time>
      </trkpt>
      <trkpt lat="47.03056" lon="-0.9563">
        <ele>101</ele>
        <time>2023-05-08T21:42:01Z</time>
      </trkpt>
      <trkpt lat="47.02923" lon="-0.9529">
        <ele>98</ele>
        <time>2023-05-08T21:42:49Z</time>
      </trkpt>
      <trkpt lat="47.02948" lon="-0.9528">
        <ele>99</ele>
        <time>2023-05-08T21:42:54Z</time>
      </trkpt>
      <trkpt lat="47.02948" lon="-0.9528">
        <ele>99</ele>
        <time>2023-05-08T21:42:54Z</time>
      </trkpt>
      <trkpt lat="47.03045" lon="-0.95238">
        <ele>100</ele>
        <time>2023-05-08T21:43:12Z</time>
      </trkpt>
      <trkpt lat="47.03077" lon="-0.95219">
        <ele>100</ele>
        <time>2023-05-08T21:43:18Z</time>
      </trkpt>
      <trkpt lat="47.03132" lon="-0.95174">
        <ele>98</ele>
        <time>2023-05-08T21:43:29Z</time>
      </trkpt>
      <trkpt lat="47.03189" lon="-0.9511">
        <ele>97</ele>
        <time>2023-05-08T21:43:42Z</time>
      </trkpt>
      <trkpt lat="47.03258" lon="-0.95018">
        <ele>99</ele>
        <time>2023-05-08T21:43:58Z</time>
      </trkpt>
      <trkpt lat="47.03292" lon="-0.94952">
        <ele>98</ele>
        <time>2023-05-08T21:44:08Z</time>
      </trkpt>
      <trkpt lat="47.03324" lon="-0.9486">
        <ele>93</ele>
        <time>2023-05-08T21:44:21Z</time>
      </trkpt>
      <trkpt lat="47.03333" lon="-0.94818">
        <ele>92</ele>
        <time>2023-05-08T21:44:26Z</time>
      </trkpt>
      <trkpt lat="47.03337" lon="-0.94792">
        <ele>91</ele>
        <time>2023-05-08T21:44:29Z</time>
      </trkpt>
      <trkpt lat="47.03333" lon="-0.94791">
        <ele>91</ele>
        <time>2023-05-08T21:44:30Z</time>
      </trkpt>
      <trkpt lat="47.03329" lon="-0.94784">
        <ele>91</ele>
        <time>2023-05-08T21:44:31Z</time>
      </trkpt>
      <trkpt lat="47.03328" lon="-0.94775">
        <ele>91</ele>
        <time>2023-05-08T21:44:32Z</time>
      </trkpt>
      <trkpt lat="47.03331" lon="-0.94767">
        <ele>90</ele>
        <time>2023-05-08T21:44:33Z</time>
      </trkpt>
      <trkpt lat="47.03337" lon="-0.94763">
        <ele>90</ele>
        <time>2023-05-08T21:44:35Z</time>
      </trkpt>
      <trkpt lat="47.0334" lon="-0.94763">
        <ele>90</ele>
        <time>2023-05-08T21:44:35Z</time>
      </trkpt>
      <trkpt lat="47.03351" lon="-0.94696">
        <ele>89</ele>
        <time>2023-05-08T21:44:44Z</time>
      </trkpt>
      <trkpt lat="47.03356" lon="-0.9462">
        <ele>89</ele>
        <time>2023-05-08T21:44:53Z</time>
      </trkpt>
      <trkpt lat="47.03356" lon="-0.94581">
        <ele>89</ele>
        <time>2023-05-08T21:44:58Z</time>
      </trkpt>
      <trkpt lat="47.03353" lon="-0.94544">
        <ele>89</ele>
        <time>2023-05-08T21:45:02Z</time>
      </trkpt>
      <trkpt lat="47.03345" lon="-0.9445">
        <ele>88</ele>
        <time>2023-05-08T21:45:14Z</time>
      </trkpt>
      <trkpt lat="47.03342" lon="-0.94348">
        <ele>86</ele>
        <time>2023-05-08T21:45:26Z</time>
      </trkpt>
      <trkpt lat="47.03339" lon="-0.94346">
        <ele>85</ele>
        <time>2023-05-08T21:45:27Z</time>
      </trkpt>
      <trkpt lat="47.03335" lon="-0.9434">
        <ele>85</ele>
        <time>2023-05-08T21:45:28Z</time>
      </trkpt>
      <trkpt lat="47.03335" lon="-0.94334">
        <ele>85</ele>
        <time>2023-05-08T21:45:28Z</time>
      </trkpt>
      <trkpt lat="47.03336" lon="-0.9433">
        <ele>85</ele>
        <time>2023-05-08T21:45:29Z</time>
      </trkpt>
      <trkpt lat="47.03341" lon="-0.94325">
        <ele>85</ele>
        <time>2023-05-08T21:45:30Z</time>
      </trkpt>
      <trkpt lat="47.03344" lon="-0.94324">
        <ele>85</ele>
        <time>2023-05-08T21:45:30Z</time>
      </trkpt>
      <trkpt lat="47.03343" lon="-0.94309">
        <ele>86</ele>
        <time>2023-05-08T21:45:32Z</time>
      </trkpt>
      <trkpt lat="47.0335" lon="-0.94195">
        <ele>88</ele>
        <time>2023-05-08T21:45:46Z</time>
      </trkpt>
      <trkpt lat="47.03307" lon="-0.94193">
        <ele>88</ele>
        <time>2023-05-08T21:45:54Z</time>
      </trkpt>
      <trkpt lat="47.03283" lon="-0.94178">
        <ele>87</ele>
        <time>2023-05-08T21:45:58Z</time>
      </trkpt>
      <trkpt lat="47.03286" lon="-0.94163">
        <ele>88</ele>
        <time>2023-05-08T21:46:00Z</time>
      </trkpt>
      <trkpt lat="47.03286" lon="-0.94163">
        <ele>88</ele>
        <time>2023-05-08T21:46:00Z</time>
      </trkpt>
      <trkpt lat="47.03268" lon="-0.94153">
        <ele>88</ele>
        <time>2023-05-08T21:46:04Z</time>
      </trkpt>
      <trkpt lat="47.0326" lon="-0.94117">
        <ele>90</ele>
        <time>2023-05-08T21:46:08Z</time>
      </trkpt>
      <trkpt lat="47.03237" lon="-0.94128">
        <ele>89</ele>
        <time>2023-05-08T21:46:13Z</time>
      </trkpt>
      <trkpt lat="47.03164" lon="-0.94144">
        <ele>88</ele>
        <time>2023-05-08T21:46:26Z</time>
      </trkpt>
      <trkpt lat="47.03132" lon="-0.94156">
        <ele>88</ele>
        <time>2023-05-08T21:46:32Z</time>
      </trkpt>
      <trkpt lat="47.03094" lon="-0.94172">
        <ele>88</ele>
        <time>2023-05-08T21:46:39Z</time>
      </trkpt>
      <trkpt lat="47.03031" lon="-0.94064">
        <ele>90</ele>
        <time>2023-05-08T21:46:56Z</time>
      </trkpt>
      <trkpt lat="47.03004" lon="-0.94043">
        <ele>90</ele>
        <time>2023-05-08T21:47:01Z</time>
      </trkpt>
      <trkpt lat="47.0301" lon="-0.94027">
        <ele>91</ele>
        <time>2023-05-08T21:47:04Z</time>
      </trkpt>
      <trkpt lat="47.03025" lon="-0.93972">
        <ele>91</ele>
        <time>2023-05-08T21:47:11Z</time>
      </trkpt>
      <trkpt lat="47.03032" lon="-0.93957">
        <ele>92</ele>
        <time>2023-05-08T21:47:13Z</time>
      </trkpt>
      <trkpt lat="47.03043" lon="-0.93941">
        <ele>92</ele>
        <time>2023-05-08T21:47:16Z</time>
      </trkpt>
      <trkpt lat="47.03043" lon="-0.93941">
        <ele>92</ele>
        <time>2023-05-08T21:47:16Z</time>
      </trkpt>
      <trkpt lat="47.03131" lon="-0.93814">
        <ele>91</ele>
        <time>2023-05-08T21:47:38Z</time>
      </trkpt>
      <trkpt lat="47.03167" lon="-0.93752">
        <ele>89</ele>
        <time>2023-05-08T21:47:48Z</time>
      </trkpt>
      <trkpt lat="47.03179" lon="-0.93722">
        <ele>88</ele>
        <time>2023-05-08T21:47:52Z</time>
      </trkpt>
      <trkpt lat="47.03175" lon="-0.93716">
        <ele>88</ele>
        <time>2023-05-08T21:47:53Z</time>
      </trkpt>
      <trkpt lat="47.03174" lon="-0.93707">
        <ele>88</ele>
        <time>2023-05-08T21:47:54Z</time>
      </trkpt>
      <trkpt lat="47.03177" lon="-0.93698">
        <ele>87</ele>
        <time>2023-05-08T21:47:55Z</time>
      </trkpt>
      <trkpt lat="47.03182" lon="-0.93694">
        <ele>87</ele>
        <time>2023-05-08T21:47:56Z</time>
      </trkpt>
      <trkpt lat="47.03188" lon="-0.93695">
        <ele>87</ele>
        <time>2023-05-08T21:47:57Z</time>
      </trkpt>
      <trkpt lat="47.03191" lon="-0.93698">
        <ele>87</ele>
        <time>2023-05-08T21:47:58Z</time>
      </trkpt>
      <trkpt lat="47.032" lon="-0.9368">
        <ele>86</ele>
        <time>2023-05-08T21:48:01Z</time>
      </trkpt>
      <trkpt lat="47.03212" lon="-0.9364">
        <ele>85</ele>
        <time>2023-05-08T21:48:06Z</time>
      </trkpt>
      <trkpt lat="47.0323" lon="-0.93516">
        <ele>85</ele>
        <time>2023-05-08T21:48:21Z</time>
      </trkpt>
      <trkpt lat="47.03264" lon="-0.93317">
        <ele>87</ele>
        <time>2023-05-08T21:48:46Z</time>
      </trkpt>
      <trkpt lat="47.03268" lon="-0.93284">
        <ele>87</ele>
        <time>2023-05-08T21:48:50Z</time>
      </trkpt>
      <trkpt lat="47.03268" lon="-0.93252">
        <ele>87</ele>
        <time>2023-05-08T21:48:54Z</time>
      </trkpt>
      <trkpt lat="47.03265" lon="-0.93221">
        <ele>87</ele>
        <time>2023-05-08T21:48:58Z</time>
      </trkpt>
      <trkpt lat="47.03163" lon="-0.92787">
        <ele>90</ele>
        <time>2023-05-08T21:49:54Z</time>
      </trkpt>
      <trkpt lat="47.03153" lon="-0.92721">
        <ele>90</ele>
        <time>2023-05-08T21:50:02Z</time>
      </trkpt>
      <trkpt lat="47.03153" lon="-0.92687">
        <ele>90</ele>
        <time>2023-05-08T21:50:06Z</time>
      </trkpt>
      <trkpt lat="47.0316" lon="-0.92645">
        <ele>91</ele>
        <time>2023-05-08T21:50:11Z</time>
      </trkpt>
      <trkpt lat="47.03182" lon="-0.92589">
        <ele>93</ele>
        <time>2023-05-08T21:50:19Z</time>
      </trkpt>
      <trkpt lat="47.03303" lon="-0.92457">
        <ele>98</ele>
        <time>2023-05-08T21:50:46Z</time>
      </trkpt>
      <trkpt lat="47.03323" lon="-0.92409">
        <ele>99</ele>
        <time>2023-05-08T21:50:53Z</time>
      </trkpt>
      <trkpt lat="47.03334" lon="-0.92362">
        <ele>100</ele>
        <time>2023-05-08T21:50:59Z</time>
      </trkpt>
      <trkpt lat="47.03333" lon="-0.92299">
        <ele>101</ele>
        <time>2023-05-08T21:51:06Z</time>
      </trkpt>
      <trkpt lat="47.03318" lon="-0.92238">
        <ele>102</ele>
        <time>2023-05-08T21:51:14Z</time>
      </trkpt>
      <trkpt lat="47.0329" lon="-0.9219">
        <ele>102</ele>
        <time>2023-05-08T21:51:22Z</time>
      </trkpt>
      <trkpt lat="47.03257" lon="-0.92163">
        <ele>102</ele>
        <time>2023-05-08T21:51:28Z</time>
      </trkpt>
      <trkpt lat="47.03216" lon="-0.92145">
        <ele>103</ele>
        <time>2023-05-08T21:51:36Z</time>
      </trkpt>
      <trkpt lat="47.03213" lon="-0.92151">
        <ele>102</ele>
        <time>2023-05-08T21:51:37Z</time>
      </trkpt>
      <trkpt lat="47.03204" lon="-0.92158">
        <ele>102</ele>
        <time>2023-05-08T21:51:39Z</time>
      </trkpt>
      <trkpt lat="47.03194" lon="-0.92156">
        <ele>102</ele>
        <time>2023-05-08T21:51:41Z</time>
      </trkpt>
      <trkpt lat="47.0319" lon="-0.92151">
        <ele>102</ele>
        <time>2023-05-08T21:51:42Z</time>
      </trkpt>
      <trkpt lat="47.03185" lon="-0.92137">
        <ele>102</ele>
        <time>2023-05-08T21:51:43Z</time>
      </trkpt>
      <trkpt lat="47.03186" lon="-0.92129">
        <ele>102</ele>
        <time>2023-05-08T21:51:44Z</time>
      </trkpt>
      <trkpt lat="47.03188" lon="-0.92121">
        <ele>103</ele>
        <time>2023-05-08T21:51:45Z</time>
      </trkpt>
      <trkpt lat="47.0317" lon="-0.92105">
        <ele>102</ele>
        <time>2023-05-08T21:51:49Z</time>
      </trkpt>
      <trkpt lat="47.03157" lon="-0.92081">
        <ele>102</ele>
        <time>2023-05-08T21:51:53Z</time>
      </trkpt>
      <trkpt lat="47.03152" lon="-0.92065">
        <ele>102</ele>
        <time>2023-05-08T21:51:55Z</time>
      </trkpt>
      <trkpt lat="47.03148" lon="-0.9204">
        <ele>102</ele>
        <time>2023-05-08T21:51:58Z</time>
      </trkpt>
      <trkpt lat="47.03146" lon="-0.91949">
        <ele>102</ele>
        <time>2023-05-08T21:52:09Z</time>
      </trkpt>
      <trkpt lat="47.03109" lon="-0.91518">
        <ele>104</ele>
        <time>2023-05-08T21:53:02Z</time>
      </trkpt>
      <trkpt lat="47.03103" lon="-0.91517">
        <ele>103</ele>
        <time>2023-05-08T21:53:03Z</time>
      </trkpt>
      <trkpt lat="47.03098" lon="-0.91512">
        <ele>103</ele>
        <time>2023-05-08T21:53:04Z</time>
      </trkpt>
      <trkpt lat="47.03094" lon="-0.91505">
        <ele>103</ele>
        <time>2023-05-08T21:53:05Z</time>
      </trkpt>
      <trkpt lat="47.03092" lon="-0.91497">
        <ele>103</ele>
        <time>2023-05-08T21:53:06Z</time>
      </trkpt>
      <trkpt lat="47.03091" lon="-0.91489">
        <ele>103</ele>
        <time>2023-05-08T21:53:07Z</time>
      </trkpt>
      <trkpt lat="47.03096" lon="-0.91475">
        <ele>103</ele>
        <time>2023-05-08T21:53:09Z</time>
      </trkpt>
      <trkpt lat="47.03101" lon="-0.91469">
        <ele>104</ele>
        <time>2023-05-08T21:53:10Z</time>
      </trkpt>
      <trkpt lat="47.03109" lon="-0.91437">
        <ele>104</ele>
        <time>2023-05-08T21:53:14Z</time>
      </trkpt>
      <trkpt lat="47.03122" lon="-0.91285">
        <ele>104</ele>
        <time>2023-05-08T21:53:33Z</time>
      </trkpt>
      <trkpt lat="47.03123" lon="-0.91257">
        <ele>105</ele>
        <time>2023-05-08T21:53:36Z</time>
      </trkpt>
      <trkpt lat="47.0312" lon="-0.91214">
        <ele>107</ele>
        <time>2023-05-08T21:53:42Z</time>
      </trkpt>
      <trkpt lat="47.03115" lon="-0.91192">
        <ele>107</ele>
        <time>2023-05-08T21:53:44Z</time>
      </trkpt>
      <trkpt lat="47.0311" lon="-0.9118">
        <ele>108</ele>
        <time>2023-05-08T21:53:46Z</time>
      </trkpt>
      <trkpt lat="47.03104" lon="-0.91171">
        <ele>108</ele>
        <time>2023-05-08T21:53:48Z</time>
      </trkpt>
      <trkpt lat="47.03096" lon="-0.91171">
        <ele>108</ele>
        <time>2023-05-08T21:53:49Z</time>
      </trkpt>
      <trkpt lat="47.03087" lon="-0.91167">
        <ele>108</ele>
        <time>2023-05-08T21:53:51Z</time>
      </trkpt>
      <trkpt lat="47.0308" lon="-0.9116">
        <ele>108</ele>
        <time>2023-05-08T21:53:52Z</time>
      </trkpt>
      <trkpt lat="47.03075" lon="-0.91151">
        <ele>108</ele>
        <time>2023-05-08T21:53:54Z</time>
      </trkpt>
      <trkpt lat="47.03071" lon="-0.9114">
        <ele>108</ele>
        <time>2023-05-08T21:53:55Z</time>
      </trkpt>
      <trkpt lat="47.0307" lon="-0.91127">
        <ele>108</ele>
        <time>2023-05-08T21:53:57Z</time>
      </trkpt>
      <trkpt lat="47.03072" lon="-0.91112">
        <ele>108</ele>
        <time>2023-05-08T21:53:59Z</time>
      </trkpt>
      <trkpt lat="47.03077" lon="-0.91099">
        <ele>108</ele>
        <time>2023-05-08T21:54:00Z</time>
      </trkpt>
      <trkpt lat="47.03085" lon="-0.91089">
        <ele>108</ele>
        <time>2023-05-08T21:54:02Z</time>
      </trkpt>
      <trkpt lat="47.03094" lon="-0.91083">
        <ele>108</ele>
        <time>2023-05-08T21:54:04Z</time>
      </trkpt>
      <trkpt lat="47.03093" lon="-0.91066">
        <ele>108</ele>
        <time>2023-05-08T21:54:06Z</time>
      </trkpt>
      <trkpt lat="47.03089" lon="-0.91052">
        <ele>108</ele>
        <time>2023-05-08T21:54:08Z</time>
      </trkpt>
      <trkpt lat="47.03091" lon="-0.91044">
        <ele>108</ele>
        <time>2023-05-08T21:54:09Z</time>
      </trkpt>
      <trkpt lat="47.03101" lon="-0.91036">
        <ele>108</ele>
        <time>2023-05-08T21:54:11Z</time>
      </trkpt>
      <trkpt lat="47.03123" lon="-0.91026">
        <ele>109</ele>
        <time>2023-05-08T21:54:15Z</time>
      </trkpt>
      <trkpt lat="47.03141" lon="-0.9101">
        <ele>109</ele>
        <time>2023-05-08T21:54:19Z</time>
      </trkpt>
      <trkpt lat="47.03178" lon="-0.90966">
        <ele>110</ele>
        <time>2023-05-08T21:54:27Z</time>
      </trkpt>
      <trkpt lat="47.03179" lon="-0.90957">
        <ele>110</ele>
        <time>2023-05-08T21:54:28Z</time>
      </trkpt>
      <trkpt lat="47.03177" lon="-0.90944">
        <ele>109</ele>
        <time>2023-05-08T21:54:30Z</time>
      </trkpt>
      <trkpt lat="47.03169" lon="-0.90935">
        <ele>109</ele>
        <time>2023-05-08T21:54:32Z</time>
      </trkpt>
      <trkpt lat="47.03169" lon="-0.90935">
        <ele>109</ele>
        <time>2023-05-08T21:54:32Z</time>
      </trkpt>
      <trkpt lat="47.03068" lon="-0.9083">
        <ele>109</ele>
        <time>2023-05-08T21:54:54Z</time>
      </trkpt>
      <trkpt lat="47.02955" lon="-0.90671">
        <ele>112</ele>
        <time>2023-05-08T21:55:22Z</time>
      </trkpt>
      <trkpt lat="47.02902" lon="-0.90608">
        <ele>111</ele>
        <time>2023-05-08T21:55:34Z</time>
      </trkpt>
      <trkpt lat="47.02845" lon="-0.90531">
        <ele>110</ele>
        <time>2023-05-08T21:55:48Z</time>
      </trkpt>
      <trkpt lat="47.02831" lon="-0.90523">
        <ele>110</ele>
        <time>2023-05-08T21:55:50Z</time>
      </trkpt>
      <trkpt lat="47.02738" lon="-0.90488">
        <ele>109</ele>
        <time>2023-05-08T21:56:07Z</time>
      </trkpt>
      <trkpt lat="47.0271" lon="-0.90475">
        <ele>110</ele>
        <time>2023-05-08T21:56:13Z</time>
      </trkpt>
      <trkpt lat="47.026" lon="-0.90394">
        <ele>110</ele>
        <time>2023-05-08T21:56:35Z</time>
      </trkpt>
      <trkpt lat="47.02537" lon="-0.9037">
        <ele>111</ele>
        <time>2023-05-08T21:56:46Z</time>
      </trkpt>
      <trkpt lat="47.02519" lon="-0.9036">
        <ele>111</ele>
        <time>2023-05-08T21:56:50Z</time>
      </trkpt>
      <trkpt lat="47.02441" lon="-0.90298">
        <ele>112</ele>
        <time>2023-05-08T21:57:05Z</time>
      </trkpt>
      <trkpt lat="47.0234" lon="-0.90231">
        <ele>114</ele>
        <time>2023-05-08T21:57:25Z</time>
      </trkpt>
      <trkpt lat="47.02264" lon="-0.90161">
        <ele>121</ele>
        <time>2023-05-08T21:57:41Z</time>
      </trkpt>
      <trkpt lat="47.0205" lon="-0.90062">
        <ele>122</ele>
        <time>2023-05-08T21:58:21Z</time>
      </trkpt>
      <trkpt lat="47.01955" lon="-0.90045">
        <ele>123</ele>
        <time>2023-05-08T21:58:38Z</time>
      </trkpt>
      <trkpt lat="47.0187" lon="-0.90036">
        <ele>125</ele>
        <time>2023-05-08T21:58:53Z</time>
      </trkpt>
      <trkpt lat="47.01847" lon="-0.90036">
        <ele>125</ele>
        <time>2023-05-08T21:58:57Z</time>
      </trkpt>
      <trkpt lat="47.01847" lon="-0.90036">
        <ele>125</ele>
        <time>2023-05-08T21:58:57Z</time>
      </trkpt>
      <trkpt lat="47.0181" lon="-0.90037">
        <ele>125</ele>
        <time>2023-05-08T21:59:04Z</time>
      </trkpt>
      <trkpt lat="47.01812" lon="-0.90012">
        <ele>126</ele>
        <time>2023-05-08T21:59:07Z</time>
      </trkpt>
      <trkpt lat="47.01866" lon="-0.89887">
        <ele>128</ele>
        <time>2023-05-08T21:59:25Z</time>
      </trkpt>
      <trkpt lat="47.01908" lon="-0.89797">
        <ele>131</ele>
        <time>2023-05-08T21:59:38Z</time>
      </trkpt>
      <trkpt lat="47.01952" lon="-0.89749">
        <ele>135</ele>
        <time>2023-05-08T21:59:48Z</time>
      </trkpt>
      <trkpt lat="47.02114" lon="-0.89604">
        <ele>136</ele>
        <time>2023-05-08T22:00:22Z</time>
      </trkpt>
      <trkpt lat="47.02309" lon="-0.89436">
        <ele>128</ele>
        <time>2023-05-08T22:01:02Z</time>
      </trkpt>
      <trkpt lat="47.02434" lon="-0.89323">
        <ele>123</ele>
        <time>2023-05-08T22:01:28Z</time>
      </trkpt>
      <trkpt lat="47.02502" lon="-0.89267">
        <ele>123</ele>
        <time>2023-05-08T22:01:42Z</time>
      </trkpt>
      <trkpt lat="47.02533" lon="-0.89253">
        <ele>123</ele>
        <time>2023-05-08T22:01:48Z</time>
      </trkpt>
      <trkpt lat="47.02578" lon="-0.89238">
        <ele>124</ele>
        <time>2023-05-08T22:01:56Z</time>
      </trkpt>
      <trkpt lat="47.02841" lon="-0.89157">
        <ele>124</ele>
        <time>2023-05-08T22:02:44Z</time>
      </trkpt>
      <trkpt lat="47.0295" lon="-0.8912">
        <ele>124</ele>
        <time>2023-05-08T22:03:04Z</time>
      </trkpt>
      <trkpt lat="47.02981" lon="-0.89113">
        <ele>124</ele>
        <time>2023-05-08T22:03:09Z</time>
      </trkpt>
      <trkpt lat="47.03142" lon="-0.89047">
        <ele>118</ele>
        <time>2023-05-08T22:03:39Z</time>
      </trkpt>
      <trkpt lat="47.03294" lon="-0.8899">
        <ele>111</ele>
        <time>2023-05-08T22:04:07Z</time>
      </trkpt>
      <trkpt lat="47.03364" lon="-0.88973">
        <ele>109</ele>
        <time>2023-05-08T22:04:19Z</time>
      </trkpt>
      <trkpt lat="47.03381" lon="-0.88965">
        <ele>109</ele>
        <time>2023-05-08T22:04:23Z</time>
      </trkpt>
      <trkpt lat="47.03448" lon="-0.88917">
        <ele>110</ele>
        <time>2023-05-08T22:04:36Z</time>
      </trkpt>
      <trkpt lat="47.03477" lon="-0.88904">
        <ele>110</ele>
        <time>2023-05-08T22:04:41Z</time>
      </trkpt>
      <trkpt lat="47.03534" lon="-0.88874">
        <ele>111</ele>
        <time>2023-05-08T22:04:52Z</time>
      </trkpt>
      <trkpt lat="47.03771" lon="-0.88685">
        <ele>114</ele>
        <time>2023-05-08T22:05:40Z</time>
      </trkpt>
      <trkpt lat="47.03903" lon="-0.88587">
        <ele>113</ele>
        <time>2023-05-08T22:06:06Z</time>
      </trkpt>
      <trkpt lat="47.03914" lon="-0.88577">
        <ele>113</ele>
        <time>2023-05-08T22:06:09Z</time>
      </trkpt>
      <trkpt lat="47.03921" lon="-0.88558">
        <ele>113</ele>
        <time>2023-05-08T22:06:11Z</time>
      </trkpt>
      <trkpt lat="47.03925" lon="-0.88551">
        <ele>113</ele>
        <time>2023-05-08T22:06:12Z</time>
      </trkpt>
      <trkpt lat="47.03917" lon="-0.88545">
        <ele>113</ele>
        <time>2023-05-08T22:06:14Z</time>
      </trkpt>
      <trkpt lat="47.03911" lon="-0.88534">
        <ele>113</ele>
        <time>2023-05-08T22:06:16Z</time>
      </trkpt>
      <trkpt lat="47.03909" lon="-0.88521">
        <ele>113</ele>
        <time>2023-05-08T22:06:17Z</time>
      </trkpt>
      <trkpt lat="47.03911" lon="-0.88508">
        <ele>113</ele>
        <time>2023-05-08T22:06:19Z</time>
      </trkpt>
      <trkpt lat="47.03916" lon="-0.88498">
        <ele>113</ele>
        <time>2023-05-08T22:06:20Z</time>
      </trkpt>
      <trkpt lat="47.03923" lon="-0.88492">
        <ele>113</ele>
        <time>2023-05-08T22:06:22Z</time>
      </trkpt>
      <trkpt lat="47.03936" lon="-0.88492">
        <ele>113</ele>
        <time>2023-05-08T22:06:24Z</time>
      </trkpt>
      <trkpt lat="47.03947" lon="-0.88503">
        <ele>113</ele>
        <time>2023-05-08T22:06:27Z</time>
      </trkpt>
      <trkpt lat="47.03951" lon="-0.88521">
        <ele>113</ele>
        <time>2023-05-08T22:06:29Z</time>
      </trkpt>
      <trkpt lat="47.03992" lon="-0.88511">
        <ele>112</ele>
        <time>2023-05-08T22:06:36Z</time>
      </trkpt>
      <trkpt lat="47.04054" lon="-0.88502">
        <ele>111</ele>
        <time>2023-05-08T22:06:47Z</time>
      </trkpt>
      <trkpt lat="47.04095" lon="-0.88502">
        <ele>110</ele>
        <time>2023-05-08T22:06:55Z</time>
      </trkpt>
      <trkpt lat="47.04159" lon="-0.88508">
        <ele>107</ele>
        <time>2023-05-08T22:07:06Z</time>
      </trkpt>
      <trkpt lat="47.04206" lon="-0.88515">
        <ele>106</ele>
        <time>2023-05-08T22:07:14Z</time>
      </trkpt>
      <trkpt lat="47.04342" lon="-0.88541">
        <ele>104</ele>
        <time>2023-05-08T22:07:39Z</time>
      </trkpt>
      <trkpt lat="47.04342" lon="-0.88558">
        <ele>103</ele>
        <time>2023-05-08T22:07:41Z</time>
      </trkpt>
      <trkpt lat="47.04349" lon="-0.88601">
        <ele>103</ele>
        <time>2023-05-08T22:07:46Z</time>
      </trkpt>
      <trkpt lat="47.04352" lon="-0.88644">
        <ele>102</ele>
        <time>2023-05-08T22:07:51Z</time>
      </trkpt>
      <trkpt lat="47.04346" lon="-0.88651">
        <ele>102</ele>
        <time>2023-05-08T22:07:53Z</time>
      </trkpt>
      <trkpt lat="47.04334" lon="-0.88675">
        <ele>102</ele>
        <time>2023-05-08T22:07:56Z</time>
      </trkpt>
      <trkpt lat="47.04312" lon="-0.88651">
        <ele>103</ele>
        <time>2023-05-08T22:08:01Z</time>
      </trkpt>
    </trkseg>
  </trk>
</gpx>